Time,TemperatureF,DewpointF,PressureIn,WindDirection,WindDirectionDegrees,WindSpeedMPH,WindSpeedGustMPH,Humidity,HourlyPrecipIn,Conditions,Clouds,dailyrainin,SoftwareType,DateUTC
2013-01-30 00:01:00,34.6,-16.6,29.75,SSW,203,1.1,3.4,1,0.06,,,0.00,WUHU216HW,2013-01-30 05:01:00,
2013-01-30 00:03:00,34.6,-16.6,29.75,SSW,203,0.9,3.4,1,0.06,,,0.00,WUHU216HW,2013-01-30 05:03:00,
2013-01-30 00:06:00,34.6,-16.6,29.75,SSW,203,0.4,4.3,1,0.07,,,0.01,WUHU216HW,2013-01-30 05:06:00,
2013-01-30 00:08:00,34.6,-16.6,29.75,WNW,293,0.7,4.3,1,0.07,,,0.01,WUHU216HW,2013-01-30 05:08:00,
2013-01-30 00:11:00,34.7,-16.4,29.75,North,0,1.1,4.3,1,0.08,,,0.02,WUHU216HW,2013-01-30 05:11:00,
2013-01-30 00:13:00,34.7,-16.4,29.75,North,0,1.8,4.3,1,0.08,,,0.02,WUHU216HW,2013-01-30 05:13:00,
2013-01-30 00:17:00,34.6,-16.6,29.75,North,0,0.4,1.8,1,0.07,,,0.02,WUHU216HW,2013-01-30 05:17:00,
2013-01-30 00:18:00,34.6,-16.6,29.75,North,0,0.9,1.8,1,0.07,,,0.02,WUHU216HW,2013-01-30 05:18:00,
2013-01-30 00:19:00,34.6,-16.6,29.75,North,0,0.4,1.8,1,0.07,,,0.02,WUHU216HW,2013-01-30 05:19:00,
2013-01-30 00:22:00,34.6,-16.6,29.75,North,0,0.4,3.1,1,0.07,,,0.02,WUHU216HW,2013-01-30 05:22:00,
2013-01-30 00:23:00,34.6,-16.6,29.75,North,0,0.0,3.1,1,0.07,,,0.02,WUHU216HW,2013-01-30 05:23:00,
2013-01-30 00:24:00,34.6,-16.6,29.75,North,0,1.6,4.3,1,0.06,,,0.02,WUHU216HW,2013-01-30 05:24:00,
2013-01-30 00:27:00,34.7,-16.4,29.75,SSW,203,2.7,4.3,1,0.06,,,0.02,WUHU216HW,2013-01-30 05:27:00,
2013-01-30 00:28:00,34.7,-16.4,29.75,SSW,203,0.0,4.3,1,0.06,,,0.02,WUHU216HW,2013-01-30 05:28:00,
2013-01-30 00:30:00,34.7,-16.4,29.75,SSW,203,2.0,4.3,1,0.06,,,0.02,WUHU216HW,2013-01-30 05:30:00,
2013-01-30 00:32:00,34.9,-16.2,29.74,North,0,4.0,4.3,1,0.06,,,0.02,WUHU216HW,2013-01-30 05:32:00,
2013-01-30 00:33:00,34.9,-16.2,29.74,North,0,0.7,4.3,1,0.06,,,0.02,WUHU216HW,2013-01-30 05:33:00,
2013-01-30 00:35:00,34.9,-16.2,29.74,North,0,2.5,4.0,1,0.06,,,0.02,WUHU216HW,2013-01-30 05:35:00,
2013-01-30 00:37:00,34.7,-16.4,29.74,WNW,293,0.4,4.0,1,0.05,,,0.02,WUHU216HW,2013-01-30 05:37:00,
2013-01-30 00:38:00,34.7,-16.4,29.74,North,0,0.0,4.0,1,0.05,,,0.02,WUHU216HW,2013-01-30 05:38:00,
2013-01-30 00:40:00,34.7,-16.4,29.74,North,0,1.3,4.0,1,0.05,,,0.02,WUHU216HW,2013-01-30 05:40:00,
2013-01-30 00:42:00,34.7,-16.4,29.73,North,0,0.0,4.0,1,0.05,,,0.02,WUHU216HW,2013-01-30 05:42:00,
2013-01-30 00:43:00,34.7,-16.4,29.74,SSW,203,0.9,2.7,1,0.05,,,0.02,WUHU216HW,2013-01-30 05:43:00,
2013-01-30 00:45:00,34.6,-16.6,29.73,SSW,203,0.4,2.2,1,0.04,,,0.02,WUHU216HW,2013-01-30 05:45:00,
2013-01-30 00:47:00,34.6,-16.6,29.73,SSW,203,1.1,1.8,1,0.04,,,0.02,WUHU216HW,2013-01-30 05:47:00,
2013-01-30 00:48:00,34.6,-16.6,29.73,North,0,2.0,2.0,1,0.04,,,0.02,WUHU216HW,2013-01-30 05:48:00,
2013-01-30 00:49:00,34.6,-16.6,29.73,North,0,3.6,3.6,1,0.04,,,0.02,WUHU216HW,2013-01-30 05:49:00,
2013-01-30 00:50:00,34.7,-16.4,29.73,WSW,248,0.0,3.6,1,0.04,,,0.02,WUHU216HW,2013-01-30 05:50:00,
2013-01-30 00:52:00,34.6,-16.6,29.72,North,0,1.8,3.6,1,0.03,,,0.02,WUHU216HW,2013-01-30 05:52:00,
2013-01-30 00:54:00,34.6,-16.6,29.73,NW,315,1.1,3.6,1,0.03,,,0.02,WUHU216HW,2013-01-30 05:54:00,
2013-01-30 00:56:00,34.7,-16.4,29.73,North,0,1.1,3.6,1,0.02,,,0.02,WUHU216HW,2013-01-30 05:56:00,
2013-01-30 00:57:00,34.7,-16.4,29.73,North,0,2.2,3.6,1,0.03,,,0.03,WUHU216HW,2013-01-30 05:57:00,
2013-01-30 00:59:00,34.7,-16.4,29.72,North,0,1.1,3.4,1,0.03,,,0.03,WUHU216HW,2013-01-30 05:59:00,
2013-01-30 01:01:00,34.7,-16.4,29.72,North,0,0.2,3.4,1,0.03,,,0.03,WUHU216HW,2013-01-30 06:01:00,
2013-01-30 01:03:00,34.7,-16.4,29.72,North,0,0.7,3.4,1,0.03,,,0.03,WUHU216HW,2013-01-30 06:03:00,
2013-01-30 01:04:00,34.7,-16.4,29.72,North,0,2.5,3.4,1,0.02,,,0.03,WUHU216HW,2013-01-30 06:04:00,
2013-01-30 01:06:00,34.7,-16.4,29.72,North,0,1.8,3.4,1,0.02,,,0.03,WUHU216HW,2013-01-30 06:06:00,
2013-01-30 01:08:00,34.7,-16.4,29.72,North,0,3.6,3.6,1,0.01,,,0.03,WUHU216HW,2013-01-30 06:08:00,
2013-01-30 01:09:00,34.7,-16.4,29.72,North,0,2.5,3.6,1,0.01,,,0.03,WUHU216HW,2013-01-30 06:09:00,
2013-01-30 01:11:00,34.7,-16.4,29.72,North,0,5.8,5.8,1,0.01,,,0.03,WUHU216HW,2013-01-30 06:11:00,
2013-01-30 01:13:00,34.7,-16.4,29.72,North,0,1.1,5.8,1,0.01,,,0.03,WUHU216HW,2013-01-30 06:13:00,
2013-01-30 01:14:00,34.7,-16.4,29.72,North,0,0.0,5.8,1,0.01,,,0.03,WUHU216HW,2013-01-30 06:14:00,
2013-01-30 01:16:00,34.7,-16.4,29.72,NNW,338,0.4,5.8,1,0.01,,,0.03,WUHU216HW,2013-01-30 06:16:00,
2013-01-30 01:18:00,34.7,-16.4,29.72,NW,315,0.9,5.8,1,0.01,,,0.03,WUHU216HW,2013-01-30 06:18:00,
2013-01-30 01:19:00,34.7,-16.4,29.72,NW,315,0.2,5.8,1,0.01,,,0.03,WUHU216HW,2013-01-30 06:19:00,
2013-01-30 01:22:00,34.6,-16.6,29.72,North,0,2.9,4.7,1,0.01,,,0.03,WUHU216HW,2013-01-30 06:22:00,
2013-01-30 01:24:00,34.6,-16.6,29.71,North,0,2.9,4.0,1,0.01,,,0.03,WUHU216HW,2013-01-30 06:24:00,
2013-01-30 01:27:00,34.7,-16.4,29.71,North,0,3.4,4.0,1,0.01,,,0.03,WUHU216HW,2013-01-30 06:27:00,
2013-01-30 01:29:00,34.7,-16.4,29.71,North,0,3.6,4.0,1,0.01,,,0.03,WUHU216HW,2013-01-30 06:29:00,
2013-01-30 01:32:00,34.7,-16.4,29.71,North,0,1.8,4.0,1,0.01,,,0.03,WUHU216HW,2013-01-30 06:32:00,
2013-01-30 01:34:00,34.7,-16.4,29.71,North,0,0.9,4.3,1,0.01,,,0.03,WUHU216HW,2013-01-30 06:34:00,
2013-01-30 01:35:00,34.7,-16.4,29.71,North,0,1.1,4.3,1,0.01,,,0.03,WUHU216HW,2013-01-30 06:35:00,
2013-01-30 01:37:00,34.7,-16.4,29.71,WSW,248,0.4,4.3,1,0.01,,,0.03,WUHU216HW,2013-01-30 06:37:00,
2013-01-30 01:39:00,34.7,-16.4,29.71,SSW,203,3.1,4.3,1,0.01,,,0.03,WUHU216HW,2013-01-30 06:39:00,
2013-01-30 01:40:00,34.7,-16.4,29.71,SSW,203,4.9,4.9,1,0.01,,,0.03,WUHU216HW,2013-01-30 06:40:00,
2013-01-30 01:42:00,34.7,-16.4,29.70,SSW,203,2.7,4.9,1,0.01,,,0.03,WUHU216HW,2013-01-30 06:42:00,
2013-01-30 01:44:00,34.7,-16.4,29.70,North,0,1.8,4.9,1,0.01,,,0.03,WUHU216HW,2013-01-30 06:44:00,
2013-01-30 01:45:00,34.7,-16.4,29.70,North,0,0.4,4.9,1,0.02,,,0.04,WUHU216HW,2013-01-30 06:45:00,
2013-01-30 01:47:00,34.7,-16.4,29.70,North,0,2.9,4.9,1,0.02,,,0.04,WUHU216HW,2013-01-30 06:47:00,
2013-01-30 01:49:00,34.7,-16.4,29.70,North,0,1.6,4.9,1,0.02,,,0.04,WUHU216HW,2013-01-30 06:49:00,
2013-01-30 01:50:00,34.7,-16.4,29.70,North,0,3.8,4.9,1,0.02,,,0.04,WUHU216HW,2013-01-30 06:50:00,
2013-01-30 01:52:00,34.7,-16.4,29.70,North,0,2.7,3.8,1,0.02,,,0.04,WUHU216HW,2013-01-30 06:52:00,
2013-01-30 01:54:00,34.7,-16.4,29.70,North,0,3.1,3.8,1,0.02,,,0.04,WUHU216HW,2013-01-30 06:54:00,
2013-01-30 01:55:00,34.7,-16.4,29.70,North,0,2.5,3.8,1,0.02,,,0.04,WUHU216HW,2013-01-30 06:55:00,
2013-01-30 01:57:00,34.7,-16.4,29.70,SSW,203,1.1,4.0,1,0.01,,,0.04,WUHU216HW,2013-01-30 06:57:00,
2013-01-30 02:00:00,34.7,-16.4,29.69,SSW,203,0.2,4.0,1,0.01,,,0.04,WUHU216HW,2013-01-30 07:00:00,
2013-01-30 02:01:00,34.7,-16.4,29.69,SSW,203,0.4,4.0,1,0.01,,,0.04,WUHU216HW,2013-01-30 07:01:00,
2013-01-30 02:03:00,34.7,-16.4,29.69,North,0,2.0,4.0,1,0.01,,,0.04,WUHU216HW,2013-01-30 07:03:00,
2013-01-30 02:05:00,34.7,-16.4,29.69,North,0,0.9,4.0,1,0.01,,,0.04,WUHU216HW,2013-01-30 07:05:00,
2013-01-30 02:06:00,34.7,-16.4,29.68,North,0,4.7,4.7,1,0.01,,,0.04,WUHU216HW,2013-01-30 07:06:00,
2013-01-30 02:08:00,34.7,-16.4,29.68,North,0,1.1,4.7,1,0.01,,,0.04,WUHU216HW,2013-01-30 07:08:00,
2013-01-30 02:10:00,34.7,-16.4,29.69,North,0,0.7,4.7,1,0.01,,,0.04,WUHU216HW,2013-01-30 07:10:00,
2013-01-30 02:11:00,34.7,-16.4,29.69,North,0,1.6,4.7,1,0.01,,,0.04,WUHU216HW,2013-01-30 07:11:00,
2013-01-30 02:13:00,34.9,-16.2,29.69,North,0,2.2,4.7,1,0.01,,,0.04,WUHU216HW,2013-01-30 07:13:00,
2013-01-30 02:15:00,34.7,-16.4,29.69,WSW,248,0.0,4.7,1,0.01,,,0.04,WUHU216HW,2013-01-30 07:15:00,
2013-01-30 02:16:00,34.9,-16.2,29.69,SSW,203,1.1,3.8,1,0.01,,,0.04,WUHU216HW,2013-01-30 07:16:00,
2013-01-30 02:18:00,34.9,-16.2,29.69,SSW,203,1.1,2.5,1,0.01,,,0.04,WUHU216HW,2013-01-30 07:18:00,
2013-01-30 02:20:00,34.9,-16.2,29.69,SSW,203,0.0,2.9,1,0.01,,,0.04,WUHU216HW,2013-01-30 07:20:00,
2013-01-30 02:21:00,34.9,-16.2,29.69,SSW,203,0.0,2.9,1,0.01,,,0.04,WUHU216HW,2013-01-30 07:21:00,
2013-01-30 02:23:00,34.9,-16.2,29.68,West,270,1.8,4.5,1,0.01,,,0.04,WUHU216HW,2013-01-30 07:23:00,
2013-01-30 02:26:00,34.9,-16.2,29.68,North,0,1.8,4.5,1,0.01,,,0.04,WUHU216HW,2013-01-30 07:26:00,
2013-01-30 02:27:00,34.9,-16.2,29.68,North,0,1.1,4.5,1,0.01,,,0.04,WUHU216HW,2013-01-30 07:27:00,
2013-01-30 02:28:00,34.9,-16.2,29.68,North,0,1.1,4.5,1,0.01,,,0.04,WUHU216HW,2013-01-30 07:28:00,
2013-01-30 02:31:00,34.9,-16.2,29.67,North,0,0.7,4.5,1,0.01,,,0.04,WUHU216HW,2013-01-30 07:31:00,
2013-01-30 02:32:00,34.9,-16.2,29.67,North,0,0.4,4.5,1,0.01,,,0.04,WUHU216HW,2013-01-30 07:32:00,
2013-01-30 02:34:00,34.9,-16.2,29.67,NNW,338,0.4,2.9,1,0.01,,,0.04,WUHU216HW,2013-01-30 07:34:00,
2013-01-30 02:36:00,34.9,-16.2,29.67,WNW,293,1.1,2.9,1,0.01,,,0.04,WUHU216HW,2013-01-30 07:36:00,
2013-01-30 02:37:00,34.9,-16.2,29.67,North,0,1.3,2.9,1,0.01,,,0.04,WUHU216HW,2013-01-30 07:37:00,
2013-01-30 02:39:00,34.9,-16.2,29.67,North,0,0.4,2.2,1,0.01,,,0.04,WUHU216HW,2013-01-30 07:39:00,
2013-01-30 02:41:00,34.9,-16.2,29.67,WNW,293,0.0,2.0,1,0.01,,,0.04,WUHU216HW,2013-01-30 07:41:00,
2013-01-30 02:42:00,34.9,-16.2,29.67,WNW,293,0.9,2.0,1,0.01,,,0.04,WUHU216HW,2013-01-30 07:42:00,
2013-01-30 02:44:00,34.9,-16.2,29.67,North,0,1.8,2.0,1,0.01,,,0.04,WUHU216HW,2013-01-30 07:44:00,
2013-01-30 02:46:00,34.9,-16.2,29.67,NNW,338,0.7,2.0,1,0.00,,,0.04,WUHU216HW,2013-01-30 07:46:00,
2013-01-30 02:47:00,34.9,-16.2,29.67,SSW,203,1.1,2.0,1,0.00,,,0.04,WUHU216HW,2013-01-30 07:47:00,
2013-01-30 02:49:00,34.9,-16.2,29.67,SSW,203,0.7,2.0,1,0.00,,,0.04,WUHU216HW,2013-01-30 07:49:00,
2013-01-30 02:52:00,34.9,-16.2,29.67,North,0,1.1,2.0,1,0.00,,,0.04,WUHU216HW,2013-01-30 07:52:00,
2013-01-30 02:54:00,34.9,-16.2,29.67,SSW,203,1.1,2.0,1,0.01,,,0.05,WUHU216HW,2013-01-30 07:54:00,
2013-01-30 02:57:00,35.1,-16.1,29.66,NNW,338,0.7,2.0,1,0.01,,,0.05,WUHU216HW,2013-01-30 07:57:00,
2013-01-30 02:58:00,35.1,-16.1,29.66,NNW,338,0.0,2.0,1,0.01,,,0.05,WUHU216HW,2013-01-30 07:58:00,
2013-01-30 02:59:00,35.1,-16.1,29.66,NNW,338,0.4,2.0,1,0.01,,,0.05,WUHU216HW,2013-01-30 07:59:00,
2013-01-30 03:02:00,35.3,-15.9,29.66,West,270,2.7,2.7,1,0.01,,,0.05,WUHU216HW,2013-01-30 08:02:00,
2013-01-30 03:03:00,35.3,-15.9,29.66,WNW,293,1.3,2.7,1,0.01,,,0.05,WUHU216HW,2013-01-30 08:03:00,
2013-01-30 03:04:00,35.3,-15.9,29.65,West,270,1.8,2.7,1,0.01,,,0.05,WUHU216HW,2013-01-30 08:04:00,
2013-01-30 03:07:00,35.3,-15.9,29.65,North,0,1.6,2.7,1,0.01,,,0.05,WUHU216HW,2013-01-30 08:07:00,
2013-01-30 03:08:00,35.3,-15.9,29.65,North,0,1.8,2.7,1,0.01,,,0.05,WUHU216HW,2013-01-30 08:08:00,
2013-01-30 03:09:00,35.1,-16.1,29.65,SSW,203,4.0,4.0,1,0.01,,,0.05,WUHU216HW,2013-01-30 08:09:00,
2013-01-30 03:12:00,35.1,-16.1,29.65,SSW,203,3.6,4.0,1,0.01,,,0.05,WUHU216HW,2013-01-30 08:12:00,
2013-01-30 03:13:00,35.1,-16.1,29.65,NNW,338,1.1,4.0,1,0.01,,,0.05,WUHU216HW,2013-01-30 08:13:00,
2013-01-30 03:14:00,35.1,-16.1,29.64,North,0,5.1,5.1,1,0.01,,,0.05,WUHU216HW,2013-01-30 08:14:00,
2013-01-30 03:17:00,35.1,-16.1,29.65,North,0,1.1,5.1,1,0.01,,,0.05,WUHU216HW,2013-01-30 08:17:00,
2013-01-30 03:18:00,35.1,-16.1,29.65,North,0,1.1,5.1,1,0.01,,,0.05,WUHU216HW,2013-01-30 08:18:00,
2013-01-30 03:19:00,35.1,-16.1,29.65,WSW,248,0.7,5.1,1,0.01,,,0.05,WUHU216HW,2013-01-30 08:19:00,
2013-01-30 03:22:00,35.1,-16.1,29.64,NW,315,1.1,5.1,1,0.01,,,0.05,WUHU216HW,2013-01-30 08:22:00,
2013-01-30 03:23:00,35.1,-16.1,29.64,NW,315,0.9,5.1,1,0.01,,,0.05,WUHU216HW,2013-01-30 08:23:00,
2013-01-30 03:24:00,35.1,-16.1,29.64,West,270,1.3,2.7,1,0.01,,,0.05,WUHU216HW,2013-01-30 08:24:00,
2013-01-30 03:27:00,35.1,-16.1,29.64,West,270,0.7,2.7,1,0.01,,,0.05,WUHU216HW,2013-01-30 08:27:00,
2013-01-30 03:28:00,35.3,-15.9,29.64,WNW,293,1.1,2.7,1,0.01,,,0.05,WUHU216HW,2013-01-30 08:28:00,
2013-01-30 03:29:00,35.1,-16.1,29.64,West,270,1.1,2.7,1,0.01,,,0.05,WUHU216HW,2013-01-30 08:29:00,
2013-01-30 03:33:00,35.1,-16.1,29.64,SW,225,4.0,4.0,1,0.01,,,0.05,WUHU216HW,2013-01-30 08:33:00,
2013-01-30 03:35:00,35.3,-15.9,29.63,SSW,203,0.4,4.0,1,0.01,,,0.05,WUHU216HW,2013-01-30 08:35:00,
2013-01-30 03:38:00,35.1,-16.1,29.63,WSW,248,1.3,4.0,1,0.02,,,0.06,WUHU216HW,2013-01-30 08:38:00,
2013-01-30 03:40:00,35.3,-15.9,29.63,NNW,338,2.0,4.0,1,0.02,,,0.06,WUHU216HW,2013-01-30 08:40:00,
2013-01-30 03:43:00,35.1,-16.1,29.63,SSW,203,1.8,3.6,1,0.02,,,0.06,WUHU216HW,2013-01-30 08:43:00,
2013-01-30 03:44:00,35.1,-16.1,29.63,SSW,203,1.3,2.5,1,0.02,,,0.06,WUHU216HW,2013-01-30 08:44:00,
2013-01-30 03:45:00,35.3,-15.9,29.63,NNW,338,1.1,2.5,1,0.02,,,0.06,WUHU216HW,2013-01-30 08:45:00,
2013-01-30 03:48:00,35.3,-15.9,29.62,NNW,338,0.7,2.5,1,0.02,,,0.06,WUHU216HW,2013-01-30 08:48:00,
2013-01-30 03:49:00,35.3,-15.9,29.63,North,0,0.4,2.5,1,0.02,,,0.06,WUHU216HW,2013-01-30 08:49:00,
2013-01-30 03:51:00,35.3,-15.9,29.63,NW,315,1.6,2.5,1,0.02,,,0.06,WUHU216HW,2013-01-30 08:51:00,
2013-01-30 03:53:00,35.3,-15.9,29.63,WNW,293,2.0,2.5,1,0.01,,,0.06,WUHU216HW,2013-01-30 08:53:00,
2013-01-30 03:54:00,35.3,-15.9,29.63,NW,315,1.8,2.5,1,0.01,,,0.06,WUHU216HW,2013-01-30 08:54:00,
2013-01-30 03:56:00,35.3,-15.9,29.63,NW,315,1.8,2.5,1,0.01,,,0.06,WUHU216HW,2013-01-30 08:56:00,
2013-01-30 03:58:00,35.3,-15.9,29.63,WSW,248,0.4,2.5,1,0.01,,,0.06,WUHU216HW,2013-01-30 08:58:00,
2013-01-30 03:59:00,35.3,-15.9,29.62,North,0,1.1,2.5,1,0.01,,,0.06,WUHU216HW,2013-01-30 08:59:00,
2013-01-30 04:01:00,35.3,-15.9,29.63,SSW,203,0.9,2.5,1,0.01,,,0.06,WUHU216HW,2013-01-30 09:01:00,
2013-01-30 04:03:00,35.1,-16.1,29.62,West,270,1.1,2.5,1,0.01,,,0.06,WUHU216HW,2013-01-30 09:03:00,
2013-01-30 04:04:00,35.1,-16.1,29.63,WNW,293,0.0,2.5,1,0.01,,,0.06,WUHU216HW,2013-01-30 09:04:00,
2013-01-30 04:06:00,35.1,-16.1,29.63,North,0,1.8,2.0,1,0.01,,,0.06,WUHU216HW,2013-01-30 09:06:00,
2013-01-30 04:08:00,35.1,-16.1,29.63,NW,315,0.4,2.0,1,0.01,,,0.06,WUHU216HW,2013-01-30 09:08:00,
2013-01-30 04:09:00,35.1,-16.1,29.63,NW,315,0.4,2.0,1,0.01,,,0.06,WUHU216HW,2013-01-30 09:09:00,
2013-01-30 04:12:00,35.3,-15.9,29.62,North,0,2.5,2.5,1,0.01,,,0.06,WUHU216HW,2013-01-30 09:12:00,
2013-01-30 04:13:00,35.3,-15.9,29.63,NNW,338,0.4,2.5,1,0.01,,,0.06,WUHU216HW,2013-01-30 09:13:00,
2013-01-30 04:14:00,35.3,-15.9,29.63,NNW,338,0.4,2.5,1,0.01,,,0.06,WUHU216HW,2013-01-30 09:14:00,
2013-01-30 04:17:00,35.3,-15.9,29.62,North,0,1.1,3.4,1,0.01,,,0.06,WUHU216HW,2013-01-30 09:17:00,
2013-01-30 04:19:00,35.1,-16.1,29.63,NW,315,0.2,3.4,1,0.01,,,0.06,WUHU216HW,2013-01-30 09:19:00,
2013-01-30 04:22:00,35.1,-16.1,29.63,SSW,203,0.0,3.4,1,0.01,,,0.06,WUHU216HW,2013-01-30 09:22:00,
2013-01-30 04:24:00,35.1,-16.1,29.63,SSW,203,0.0,3.4,1,0.01,,,0.06,WUHU216HW,2013-01-30 09:24:00,
2013-01-30 04:25:00,35.1,-16.1,29.63,SSW,203,0.4,3.4,1,0.01,,,0.06,WUHU216HW,2013-01-30 09:25:00,
2013-01-30 04:28:00,35.1,-16.1,29.63,SSW,203,0.7,3.4,1,0.01,,,0.06,WUHU216HW,2013-01-30 09:28:00,
2013-01-30 04:29:00,35.1,-16.1,29.63,SSW,203,2.2,3.4,1,0.01,,,0.06,WUHU216HW,2013-01-30 09:29:00,
2013-01-30 04:30:00,35.1,-16.1,29.63,SSW,203,0.4,3.4,1,0.01,,,0.06,WUHU216HW,2013-01-30 09:30:00,
2013-01-30 04:33:00,35.3,-15.9,29.62,SSW,203,1.6,3.4,1,0.01,,,0.06,WUHU216HW,2013-01-30 09:33:00,
2013-01-30 04:34:00,35.3,-15.9,29.62,SSW,203,1.8,3.4,1,0.01,,,0.06,WUHU216HW,2013-01-30 09:34:00,
2013-01-30 04:35:00,35.3,-15.9,29.61,SSW,203,1.3,3.4,1,0.01,,,0.06,WUHU216HW,2013-01-30 09:35:00,
2013-01-30 04:38:00,35.3,-15.9,29.62,SSW,203,0.4,3.8,1,0.01,,,0.07,WUHU216HW,2013-01-30 09:38:00,
2013-01-30 04:39:00,35.3,-15.9,29.61,SSW,203,0.2,3.8,1,0.01,,,0.07,WUHU216HW,2013-01-30 09:39:00,
2013-01-30 04:40:00,35.3,-15.9,29.62,SSW,203,2.5,3.8,1,0.01,,,0.07,WUHU216HW,2013-01-30 09:40:00,
2013-01-30 04:43:00,35.3,-15.9,29.61,SSW,203,0.9,3.8,1,0.01,,,0.07,WUHU216HW,2013-01-30 09:43:00,
2013-01-30 04:44:00,35.3,-15.9,29.61,SSW,203,0.7,3.8,1,0.01,,,0.07,WUHU216HW,2013-01-30 09:44:00,
2013-01-30 04:45:00,35.3,-15.9,29.61,SSW,203,0.7,3.8,1,0.01,,,0.07,WUHU216HW,2013-01-30 09:45:00,
2013-01-30 04:48:00,35.3,-15.9,29.61,North,0,6.3,6.3,1,0.01,,,0.07,WUHU216HW,2013-01-30 09:48:00,
2013-01-30 04:49:00,35.3,-15.9,29.61,North,0,3.4,6.3,1,0.01,,,0.07,WUHU216HW,2013-01-30 09:49:00,
2013-01-30 04:50:00,35.3,-15.9,29.61,SSW,203,0.9,6.3,1,0.01,,,0.07,WUHU216HW,2013-01-30 09:50:00,
2013-01-30 04:51:00,35.3,-15.9,29.61,SSW,203,0.4,6.3,1,0.01,,,0.07,WUHU216HW,2013-01-30 09:51:00,
2013-01-30 04:53:00,35.5,-15.8,29.61,North,0,2.9,6.3,1,0.01,,,0.07,WUHU216HW,2013-01-30 09:53:00,
2013-01-30 04:54:00,35.5,-15.8,29.61,North,0,0.4,6.3,1,0.01,,,0.07,WUHU216HW,2013-01-30 09:54:00,
2013-01-30 04:55:00,35.5,-15.8,29.61,North,0,0.4,6.3,1,0.01,,,0.07,WUHU216HW,2013-01-30 09:55:00,
2013-01-30 04:56:00,35.3,-15.9,29.61,North,0,1.1,6.3,1,0.01,,,0.07,WUHU216HW,2013-01-30 09:56:00,
2013-01-30 04:58:00,35.5,-15.8,29.60,North,0,2.2,5.8,1,0.01,,,0.07,WUHU216HW,2013-01-30 09:58:00,
2013-01-30 05:00:00,35.5,-15.8,29.61,North,0,0.2,4.0,1,0.01,,,0.07,WUHU216HW,2013-01-30 10:00:00,
2013-01-30 05:01:00,35.5,-15.8,29.60,North,0,0.0,4.0,1,0.01,,,0.07,WUHU216HW,2013-01-30 10:01:00,
2013-01-30 05:03:00,35.3,-15.9,29.61,North,0,0.2,4.0,1,0.01,,,0.07,WUHU216HW,2013-01-30 10:03:00,
2013-01-30 05:05:00,35.3,-15.9,29.60,North,0,1.8,4.0,1,0.01,,,0.07,WUHU216HW,2013-01-30 10:05:00,
2013-01-30 05:06:00,35.3,-15.9,29.60,North,0,1.6,3.6,1,0.01,,,0.07,WUHU216HW,2013-01-30 10:06:00,
2013-01-30 05:08:00,35.3,-15.9,29.60,North,0,0.4,3.4,1,0.01,,,0.07,WUHU216HW,2013-01-30 10:08:00,
2013-01-30 05:10:00,35.3,-15.9,29.59,North,0,1.1,6.3,1,0.01,,,0.07,WUHU216HW,2013-01-30 10:10:00,
2013-01-30 05:11:00,35.3,-15.9,29.60,SW,225,2.0,6.3,1,0.01,,,0.07,WUHU216HW,2013-01-30 10:11:00,
2013-01-30 05:13:00,35.3,-15.9,29.60,SSW,203,1.3,6.3,1,0.01,,,0.07,WUHU216HW,2013-01-30 10:13:00,
2013-01-30 05:15:00,35.5,-15.8,29.59,NNW,338,1.8,6.3,1,0.01,,,0.07,WUHU216HW,2013-01-30 10:15:00,
2013-01-30 05:16:00,35.5,-15.8,29.59,North,0,1.6,6.3,1,0.01,,,0.07,WUHU216HW,2013-01-30 10:16:00,
2013-01-30 05:18:00,35.5,-15.8,29.59,WSW,248,1.1,6.3,1,0.01,,,0.07,WUHU216HW,2013-01-30 10:18:00,
2013-01-30 05:20:00,35.6,-15.7,29.59,North,0,0.9,2.7,1,0.01,,,0.07,WUHU216HW,2013-01-30 10:20:00,
2013-01-30 05:21:00,35.6,-15.7,29.59,North,0,0.9,2.7,1,0.01,,,0.07,WUHU216HW,2013-01-30 10:21:00,
2013-01-30 05:22:00,35.6,-15.7,29.59,NNW,338,1.3,1.8,1,0.01,,,0.07,WUHU216HW,2013-01-30 10:22:00,
2013-01-30 05:23:00,35.6,-15.7,29.59,SSW,203,3.4,3.4,1,0.01,,,0.07,WUHU216HW,2013-01-30 10:23:00,
2013-01-30 05:25:00,35.6,-15.7,29.59,NNW,338,1.1,3.4,1,0.01,,,0.07,WUHU216HW,2013-01-30 10:25:00,
2013-01-30 05:26:00,35.6,-15.7,29.59,NNW,338,1.1,3.4,1,0.01,,,0.07,WUHU216HW,2013-01-30 10:26:00,
2013-01-30 05:27:00,35.6,-15.7,29.59,NNW,338,1.1,3.4,1,0.01,,,0.07,WUHU216HW,2013-01-30 10:27:00,
2013-01-30 05:28:00,35.6,-15.7,29.58,SSW,203,0.9,3.4,1,0.02,,,0.08,WUHU216HW,2013-01-30 10:28:00,
2013-01-30 05:31:00,35.6,-15.7,29.59,West,270,1.1,3.4,1,0.02,,,0.08,WUHU216HW,2013-01-30 10:31:00,
2013-01-30 05:32:00,35.6,-15.7,29.58,NNW,338,2.2,3.4,1,0.01,,,0.08,WUHU216HW,2013-01-30 10:32:00,
2013-01-30 05:33:00,35.8,-15.5,29.59,West,270,2.2,2.5,1,0.01,,,0.08,WUHU216HW,2013-01-30 10:33:00,
2013-01-30 05:36:00,35.8,-15.5,29.59,North,0,2.5,2.5,1,0.01,,,0.08,WUHU216HW,2013-01-30 10:36:00,
2013-01-30 05:37:00,35.8,-15.5,29.59,West,270,1.1,2.5,1,0.01,,,0.08,WUHU216HW,2013-01-30 10:37:00,
2013-01-30 05:39:00,35.6,-15.7,29.59,SSW,203,0.0,2.5,1,0.01,,,0.08,WUHU216HW,2013-01-30 10:39:00,
2013-01-30 05:41:00,35.6,-15.7,29.58,SSW,203,3.1,3.1,1,0.01,,,0.08,WUHU216HW,2013-01-30 10:41:00,
2013-01-30 05:42:00,35.6,-15.7,29.58,SSW,203,3.4,3.4,1,0.01,,,0.08,WUHU216HW,2013-01-30 10:42:00,
2013-01-30 05:44:00,35.6,-15.7,29.58,SSW,203,1.8,3.4,1,0.01,,,0.08,WUHU216HW,2013-01-30 10:44:00,
2013-01-30 05:46:00,35.6,-15.7,29.57,North,0,2.9,3.4,1,0.01,,,0.08,WUHU216HW,2013-01-30 10:46:00,
2013-01-30 05:47:00,35.6,-15.7,29.57,North,0,2.9,3.4,1,0.01,,,0.08,WUHU216HW,2013-01-30 10:47:00,
2013-01-30 05:49:00,35.8,-15.5,29.57,West,270,2.2,3.4,1,0.01,,,0.08,WUHU216HW,2013-01-30 10:49:00,
2013-01-30 05:52:00,35.8,-15.5,29.56,SSW,203,3.6,3.6,1,0.01,,,0.08,WUHU216HW,2013-01-30 10:52:00,
2013-01-30 05:54:00,35.6,-15.7,29.56,SSW,203,0.7,5.1,1,0.01,,,0.08,WUHU216HW,2013-01-30 10:54:00,
2013-01-30 05:57:00,35.8,-15.5,29.56,North,0,2.7,5.1,1,0.01,,,0.08,WUHU216HW,2013-01-30 10:57:00,
2013-01-30 05:59:00,35.8,-15.5,29.56,SSW,203,3.1,5.1,1,0.01,,,0.08,WUHU216HW,2013-01-30 10:59:00,
2013-01-30 06:02:00,35.8,-15.5,29.56,SSW,203,2.2,5.1,1,0.01,,,0.08,WUHU216HW,2013-01-30 11:02:00,
2013-01-30 06:04:00,35.6,-15.7,29.56,NNW,338,0.7,4.5,1,0.01,,,0.08,WUHU216HW,2013-01-30 11:04:00,
2013-01-30 06:07:00,35.8,-15.5,29.56,WNW,293,0.7,6.3,1,0.01,,,0.08,WUHU216HW,2013-01-30 11:07:00,
2013-01-30 06:08:00,35.8,-15.5,29.56,SW,225,3.1,6.3,1,0.01,,,0.08,WUHU216HW,2013-01-30 11:08:00,
2013-01-30 06:09:00,35.8,-15.5,29.56,SSW,203,1.8,6.3,1,0.01,,,0.08,WUHU216HW,2013-01-30 11:09:00,
2013-01-30 06:12:00,35.8,-15.5,29.56,SSW,203,2.5,6.3,1,0.01,,,0.08,WUHU216HW,2013-01-30 11:12:00,
2013-01-30 06:13:00,35.8,-15.5,29.55,North,0,1.1,6.3,1,0.01,,,0.08,WUHU216HW,2013-01-30 11:13:00,
2013-01-30 06:14:00,35.8,-15.5,29.56,North,0,0.7,6.3,1,0.01,,,0.08,WUHU216HW,2013-01-30 11:14:00,
2013-01-30 06:17:00,36.0,-15.4,29.55,SSW,203,3.8,3.8,1,0.01,,,0.08,WUHU216HW,2013-01-30 11:17:00,
2013-01-30 06:18:00,36.0,-15.4,29.55,WSW,248,1.6,3.8,1,0.01,,,0.08,WUHU216HW,2013-01-30 11:18:00,
2013-01-30 06:19:00,36.0,-15.4,29.55,West,270,3.4,3.8,1,0.01,,,0.08,WUHU216HW,2013-01-30 11:19:00,
2013-01-30 06:22:00,36.0,-15.4,29.54,WSW,248,3.4,4.0,1,0.01,,,0.08,WUHU216HW,2013-01-30 11:22:00,
2013-01-30 06:23:00,36.0,-15.4,29.54,NW,315,1.6,4.0,1,0.01,,,0.08,WUHU216HW,2013-01-30 11:23:00,
2013-01-30 06:24:00,36.0,-15.4,29.55,WSW,248,2.5,4.0,1,0.01,,,0.09,WUHU216HW,2013-01-30 11:24:00,
2013-01-30 06:27:00,36.0,-15.4,29.55,West,270,3.1,4.0,1,0.01,,,0.09,WUHU216HW,2013-01-30 11:27:00,
2013-01-30 06:29:00,36.0,-15.4,29.55,North,0,1.8,4.0,1,0.01,,,0.09,WUHU216HW,2013-01-30 11:29:00,
2013-01-30 06:32:00,36.0,-15.4,29.54,SSW,203,1.6,4.0,1,0.01,,,0.09,WUHU216HW,2013-01-30 11:32:00,
2013-01-30 06:34:00,36.0,-15.4,29.54,SW,225,0.4,4.0,1,0.01,,,0.09,WUHU216HW,2013-01-30 11:34:00,
2013-01-30 06:37:00,36.0,-15.4,29.53,West,270,0.4,3.8,1,0.01,,,0.09,WUHU216HW,2013-01-30 11:37:00,
2013-01-30 06:38:00,36.0,-15.4,29.53,West,270,0.4,3.8,1,0.01,,,0.09,WUHU216HW,2013-01-30 11:38:00,
2013-01-30 06:39:00,36.0,-15.4,29.54,NW,315,2.5,3.8,1,0.01,,,0.09,WUHU216HW,2013-01-30 11:39:00,
2013-01-30 06:42:00,36.2,-15.2,29.54,NW,315,2.0,3.4,1,0.01,,,0.09,WUHU216HW,2013-01-30 11:42:00,
2013-01-30 06:43:00,36.2,-15.2,29.54,NW,315,2.2,3.4,1,0.01,,,0.09,WUHU216HW,2013-01-30 11:43:00,
2013-01-30 06:44:00,36.2,-15.2,29.54,NW,315,4.9,4.9,1,0.01,,,0.09,WUHU216HW,2013-01-30 11:44:00,
2013-01-30 06:45:00,36.2,-15.2,29.54,NNW,338,1.8,4.9,1,0.01,,,0.09,WUHU216HW,2013-01-30 11:45:00,
2013-01-30 06:47:00,36.2,-15.2,29.54,North,0,1.1,4.9,1,0.01,,,0.09,WUHU216HW,2013-01-30 11:47:00,
2013-01-30 06:48:00,36.2,-15.2,29.54,North,0,1.8,4.9,1,0.01,,,0.09,WUHU216HW,2013-01-30 11:48:00,
2013-01-30 06:49:00,36.2,-15.2,29.54,NW,315,1.1,4.9,1,0.01,,,0.09,WUHU216HW,2013-01-30 11:49:00,
2013-01-30 06:50:00,36.0,-15.4,29.54,NW,315,0.7,4.9,1,0.01,,,0.09,WUHU216HW,2013-01-30 11:50:00,
2013-01-30 06:53:00,36.0,-15.4,29.54,North,0,1.1,4.9,1,0.01,,,0.09,WUHU216HW,2013-01-30 11:53:00,
2013-01-30 06:55:00,35.8,-15.5,29.53,NNW,338,0.2,2.9,1,0.01,,,0.09,WUHU216HW,2013-01-30 11:55:00,
2013-01-30 06:58:00,35.6,-15.7,29.53,SSW,203,1.8,1.8,1,0.01,,,0.09,WUHU216HW,2013-01-30 11:58:00,
2013-01-30 07:00:00,35.6,-15.7,29.53,North,0,1.6,1.8,1,0.01,,,0.09,WUHU216HW,2013-01-30 12:00:00,
2013-01-30 07:01:00,35.6,-15.7,29.53,North,0,3.8,3.8,1,0.01,,,0.09,WUHU216HW,2013-01-30 12:01:00,
2013-01-30 07:03:00,35.8,-15.5,29.53,NW,315,1.1,3.8,1,0.01,,,0.09,WUHU216HW,2013-01-30 12:03:00,
2013-01-30 07:05:00,36.0,-15.4,29.53,North,0,1.1,3.8,1,0.01,,,0.09,WUHU216HW,2013-01-30 12:05:00,
2013-01-30 07:06:00,36.0,-15.4,29.53,North,0,0.4,3.8,1,0.01,,,0.09,WUHU216HW,2013-01-30 12:06:00,
2013-01-30 07:08:00,36.0,-15.4,29.53,North,0,1.8,3.8,1,0.01,,,0.09,WUHU216HW,2013-01-30 12:08:00,
2013-01-30 07:10:00,36.0,-15.4,29.53,North,0,2.9,3.8,1,0.01,,,0.09,WUHU216HW,2013-01-30 12:10:00,
2013-01-30 07:11:00,36.0,-15.4,29.53,North,0,2.5,3.8,1,0.01,,,0.09,WUHU216HW,2013-01-30 12:11:00,
2013-01-30 07:13:00,36.0,-15.4,29.52,North,0,0.4,3.8,1,0.02,,,0.10,WUHU216HW,2013-01-30 12:13:00,
2013-01-30 07:14:00,36.0,-15.4,29.52,North,0,0.4,3.8,1,0.02,,,0.10,WUHU216HW,2013-01-30 12:14:00,
2013-01-30 07:15:00,35.8,-15.5,29.53,NNW,338,0.2,3.8,1,0.02,,,0.10,WUHU216HW,2013-01-30 12:15:00,
2013-01-30 07:16:00,35.8,-15.5,29.53,NNW,338,0.4,3.8,1,0.02,,,0.10,WUHU216HW,2013-01-30 12:16:00,
2013-01-30 07:19:00,35.8,-15.5,29.53,North,0,2.0,2.9,1,0.02,,,0.10,WUHU216HW,2013-01-30 12:19:00,
2013-01-30 07:20:00,36.0,-15.4,29.53,North,0,0.4,5.1,1,0.01,,,0.10,WUHU216HW,2013-01-30 12:20:00,
2013-01-30 07:21:00,36.0,-15.4,29.53,North,0,3.4,5.1,1,0.01,,,0.10,WUHU216HW,2013-01-30 12:21:00,
2013-01-30 07:24:00,36.0,-15.4,29.53,North,0,5.8,5.8,1,0.01,,,0.10,WUHU216HW,2013-01-30 12:24:00,
2013-01-30 07:25:00,35.8,-15.5,29.53,North,0,1.8,5.8,1,0.01,,,0.10,WUHU216HW,2013-01-30 12:25:00,
2013-01-30 07:26:00,35.8,-15.5,29.53,North,0,0.9,5.8,1,0.01,,,0.10,WUHU216HW,2013-01-30 12:26:00,
2013-01-30 07:29:00,36.0,-15.4,29.53,North,0,0.4,5.8,1,0.01,,,0.10,WUHU216HW,2013-01-30 12:29:00,
2013-01-30 07:31:00,36.0,-15.4,29.52,North,0,2.7,5.8,1,0.01,,,0.10,WUHU216HW,2013-01-30 12:31:00,
2013-01-30 07:34:00,35.8,-15.5,29.52,North,0,1.3,5.8,1,0.01,,,0.10,WUHU216HW,2013-01-30 12:34:00,
2013-01-30 07:36:00,35.8,-15.5,29.52,North,0,1.8,4.9,1,0.01,,,0.10,WUHU216HW,2013-01-30 12:36:00,
2013-01-30 07:39:00,35.8,-15.5,29.51,North,0,4.7,6.5,1,0.01,,,0.10,WUHU216HW,2013-01-30 12:39:00,
2013-01-30 07:41:00,35.8,-15.5,29.51,North,0,3.8,6.5,1,0.01,,,0.10,WUHU216HW,2013-01-30 12:41:00,
2013-01-30 07:42:00,35.8,-15.5,29.51,North,0,2.7,6.5,1,0.01,,,0.10,WUHU216HW,2013-01-30 12:42:00,
2013-01-30 07:44:00,35.8,-15.5,29.51,North,0,1.8,6.5,1,0.01,,,0.10,WUHU216HW,2013-01-30 12:44:00,
2013-01-30 07:45:00,35.8,-15.5,29.51,North,0,1.3,6.5,1,0.01,,,0.10,WUHU216HW,2013-01-30 12:45:00,
2013-01-30 07:46:00,36.0,-15.4,29.51,North,0,5.4,6.5,1,0.01,,,0.10,WUHU216HW,2013-01-30 12:46:00,
2013-01-30 07:47:00,36.0,-15.4,29.52,North,0,3.6,6.5,1,0.01,,,0.10,WUHU216HW,2013-01-30 12:47:00,
2013-01-30 07:49:00,36.0,-15.4,29.52,North,0,3.4,5.4,1,0.01,,,0.10,WUHU216HW,2013-01-30 12:49:00,
2013-01-30 07:50:00,36.0,-15.4,29.52,North,0,5.1,5.4,1,0.01,,,0.10,WUHU216HW,2013-01-30 12:50:00,
2013-01-30 07:51:00,35.8,-15.5,29.51,North,0,4.9,6.5,1,0.01,,,0.10,WUHU216HW,2013-01-30 12:51:00,
2013-01-30 07:52:00,36.0,-15.4,29.51,North,0,4.0,6.5,1,0.01,,,0.10,WUHU216HW,2013-01-30 12:52:00,
2013-01-30 07:54:00,35.8,-15.5,29.51,North,0,2.0,6.5,1,0.01,,,0.10,WUHU216HW,2013-01-30 12:54:00,
2013-01-30 07:55:00,35.8,-15.5,29.52,North,0,1.3,6.5,1,0.01,,,0.10,WUHU216HW,2013-01-30 12:55:00,
2013-01-30 07:56:00,35.8,-15.5,29.52,North,0,4.7,6.5,1,0.01,,,0.10,WUHU216HW,2013-01-30 12:56:00,
2013-01-30 07:57:00,35.8,-15.5,29.51,North,0,4.7,6.5,1,0.01,,,0.10,WUHU216HW,2013-01-30 12:57:00,
2013-01-30 07:59:00,35.8,-15.5,29.51,North,0,2.5,6.5,1,0.01,,,0.10,WUHU216HW,2013-01-30 12:59:00,
2013-01-30 08:00:00,35.8,-15.5,29.51,North,0,2.5,6.5,1,0.01,,,0.10,WUHU216HW,2013-01-30 13:00:00,
2013-01-30 08:01:00,35.8,-15.5,29.51,North,0,5.1,5.4,1,0.01,,,0.10,WUHU216HW,2013-01-30 13:01:00,
2013-01-30 08:02:00,35.8,-15.5,29.51,North,0,6.3,6.3,1,0.01,,,0.10,WUHU216HW,2013-01-30 13:02:00,
2013-01-30 08:05:00,35.8,-15.5,29.51,North,0,3.4,6.3,1,0.01,,,0.10,WUHU216HW,2013-01-30 13:05:00,
2013-01-30 08:06:00,36.0,-15.4,29.51,North,0,4.7,6.9,1,0.01,,,0.10,WUHU216HW,2013-01-30 13:06:00,
2013-01-30 08:07:00,36.0,-15.4,29.51,North,0,3.1,6.9,1,0.01,,,0.10,WUHU216HW,2013-01-30 13:07:00,
2013-01-30 08:10:00,36.0,-15.4,29.52,North,0,2.2,6.9,1,0.00,,,0.10,WUHU216HW,2013-01-30 13:10:00,
2013-01-30 08:11:00,36.0,-15.4,29.52,North,0,3.1,6.9,1,0.00,,,0.10,WUHU216HW,2013-01-30 13:11:00,
2013-01-30 08:12:00,36.0,-15.4,29.52,North,0,3.8,6.9,1,0.00,,,0.10,WUHU216HW,2013-01-30 13:12:00,
2013-01-30 08:15:00,36.0,-15.4,29.51,North,0,4.9,6.9,1,0.01,,,0.11,WUHU216HW,2013-01-30 13:15:00,
2013-01-30 08:16:00,35.8,-15.5,29.51,North,0,5.4,6.0,1,0.01,,,0.11,WUHU216HW,2013-01-30 13:16:00,
2013-01-30 08:17:00,36.0,-15.4,29.51,North,0,3.4,6.0,1,0.01,,,0.11,WUHU216HW,2013-01-30 13:17:00,
2013-01-30 08:20:00,36.0,-15.4,29.51,North,0,3.4,6.0,1,0.01,,,0.11,WUHU216HW,2013-01-30 13:20:00,
2013-01-30 08:21:00,36.0,-15.4,29.51,North,0,0.7,6.0,1,0.01,,,0.11,WUHU216HW,2013-01-30 13:21:00,
2013-01-30 08:23:00,36.0,-15.4,29.51,North,0,4.0,6.0,1,0.01,,,0.11,WUHU216HW,2013-01-30 13:23:00,
2013-01-30 08:25:00,36.2,-15.2,29.51,North,0,2.2,5.4,1,0.01,,,0.11,WUHU216HW,2013-01-30 13:25:00,
2013-01-30 08:26:00,36.2,-15.2,29.51,North,0,2.9,5.4,1,0.01,,,0.11,WUHU216HW,2013-01-30 13:26:00,
2013-01-30 08:27:00,36.2,-15.2,29.51,NNW,338,2.5,5.1,1,0.01,,,0.11,WUHU216HW,2013-01-30 13:27:00,
2013-01-30 08:28:00,36.2,-15.2,29.51,North,0,2.7,4.7,1,0.01,,,0.11,WUHU216HW,2013-01-30 13:28:00,
2013-01-30 08:30:00,36.2,-15.2,29.50,North,0,2.5,4.7,1,0.01,,,0.11,WUHU216HW,2013-01-30 13:30:00,
2013-01-30 08:31:00,36.4,-15.1,29.51,North,0,5.8,5.8,1,0.01,,,0.11,WUHU216HW,2013-01-30 13:31:00,
2013-01-30 08:32:00,36.4,-15.1,29.50,North,0,3.4,5.8,1,0.01,,,0.11,WUHU216HW,2013-01-30 13:32:00,
2013-01-30 08:33:00,36.4,-15.1,29.50,North,0,1.1,5.8,1,0.01,,,0.11,WUHU216HW,2013-01-30 13:33:00,
2013-01-30 08:35:00,36.4,-15.1,29.50,NNW,338,0.2,5.8,1,0.01,,,0.11,WUHU216HW,2013-01-30 13:35:00,
2013-01-30 08:36:00,36.4,-15.1,29.50,West,270,1.1,5.8,1,0.01,,,0.11,WUHU216HW,2013-01-30 13:36:00,
2013-01-30 08:37:00,36.4,-15.1,29.50,NW,315,0.4,5.8,1,0.01,,,0.11,WUHU216HW,2013-01-30 13:37:00,
2013-01-30 08:38:00,36.4,-15.1,29.50,North,0,1.1,5.8,1,0.01,,,0.11,WUHU216HW,2013-01-30 13:38:00,
2013-01-30 08:41:00,36.5,-14.9,29.50,West,270,1.1,5.8,1,0.01,,,0.11,WUHU216HW,2013-01-30 13:41:00,
2013-01-30 08:42:00,36.5,-14.9,29.50,North,0,2.2,3.1,1,0.01,,,0.11,WUHU216HW,2013-01-30 13:42:00,
2013-01-30 08:43:00,36.4,-15.1,29.49,North,0,2.9,3.6,1,0.01,,,0.11,WUHU216HW,2013-01-30 13:43:00,
2013-01-30 08:46:00,36.5,-14.9,29.50,North,0,2.7,4.0,1,0.01,,,0.11,WUHU216HW,2013-01-30 13:46:00,
2013-01-30 08:47:00,36.5,-14.9,29.50,North,0,2.7,4.0,1,0.01,,,0.11,WUHU216HW,2013-01-30 13:47:00,
2013-01-30 08:48:00,36.4,-15.1,29.50,North,0,3.6,4.0,1,0.01,,,0.11,WUHU216HW,2013-01-30 13:48:00,
2013-01-30 08:51:00,36.4,-15.1,29.50,North,0,1.8,4.0,1,0.01,,,0.11,WUHU216HW,2013-01-30 13:51:00,
2013-01-30 08:52:00,36.4,-15.1,29.50,North,0,4.7,4.7,1,0.01,,,0.11,WUHU216HW,2013-01-30 13:52:00,
2013-01-30 08:53:00,36.4,-15.1,29.50,North,0,4.7,4.7,1,0.01,,,0.11,WUHU216HW,2013-01-30 13:53:00,
2013-01-30 08:56:00,36.4,-15.1,29.48,North,0,2.2,5.6,1,0.01,,,0.11,WUHU216HW,2013-01-30 13:56:00,
2013-01-30 08:57:00,36.4,-15.1,29.48,North,0,4.5,5.6,1,0.02,,,0.12,WUHU216HW,2013-01-30 13:57:00,
2013-01-30 08:59:00,36.4,-15.1,29.48,North,0,3.8,7.2,1,0.02,,,0.12,WUHU216HW,2013-01-30 13:59:00,
2013-01-30 09:01:00,36.4,-15.1,29.48,North,0,3.8,7.2,1,0.02,,,0.12,WUHU216HW,2013-01-30 14:01:00,
2013-01-30 09:02:00,36.4,-15.1,29.47,North,0,1.6,7.2,1,0.02,,,0.12,WUHU216HW,2013-01-30 14:02:00,
2013-01-30 09:03:00,36.4,-15.1,29.47,North,0,3.6,7.2,1,0.02,,,0.12,WUHU216HW,2013-01-30 14:03:00,
2013-01-30 09:04:00,36.4,-15.1,29.47,North,0,1.8,7.2,1,0.02,,,0.12,WUHU216HW,2013-01-30 14:04:00,
2013-01-30 09:06:00,36.5,-14.9,29.48,North,0,0.7,7.2,1,0.02,,,0.12,WUHU216HW,2013-01-30 14:06:00,
2013-01-30 09:07:00,36.5,-14.9,29.48,North,0,0.7,7.2,1,0.02,,,0.12,WUHU216HW,2013-01-30 14:07:00,
2013-01-30 09:08:00,36.5,-14.9,29.48,North,0,0.7,4.5,1,0.02,,,0.12,WUHU216HW,2013-01-30 14:08:00,
2013-01-30 09:09:00,36.5,-14.9,29.48,SSW,203,4.0,4.5,1,0.02,,,0.12,WUHU216HW,2013-01-30 14:09:00,
2013-01-30 09:12:00,36.7,-14.7,29.48,SSW,203,0.9,4.0,1,0.01,,,0.12,WUHU216HW,2013-01-30 14:12:00,
2013-01-30 09:13:00,36.7,-14.7,29.48,SSW,203,2.5,4.0,1,0.01,,,0.12,WUHU216HW,2013-01-30 14:13:00,
2013-01-30 09:14:00,36.7,-14.7,29.48,SSW,203,1.6,4.0,1,0.01,,,0.12,WUHU216HW,2013-01-30 14:14:00,
2013-01-30 09:17:00,36.7,-14.7,29.48,SSW,203,3.4,4.0,1,0.01,,,0.12,WUHU216HW,2013-01-30 14:17:00,
2013-01-30 09:18:00,36.7,-14.7,29.48,SSW,203,0.7,4.0,1,0.01,,,0.12,WUHU216HW,2013-01-30 14:18:00,
2013-01-30 09:19:00,36.7,-14.7,29.48,SSW,203,1.6,3.4,1,0.01,,,0.12,WUHU216HW,2013-01-30 14:19:00,
2013-01-30 09:22:00,36.9,-14.7,29.48,North,0,1.3,4.3,1,0.01,,,0.12,WUHU216HW,2013-01-30 14:22:00,
2013-01-30 09:23:00,36.9,-14.7,29.48,North,0,3.4,4.3,1,0.01,,,0.12,WUHU216HW,2013-01-30 14:23:00,
2013-01-30 09:24:00,36.9,-14.7,29.48,WSW,248,0.7,4.3,1,0.01,,,0.12,WUHU216HW,2013-01-30 14:24:00,
2013-01-30 09:27:00,37.1,-14.5,29.48,North,0,0.4,4.3,1,0.01,,,0.12,WUHU216HW,2013-01-30 14:27:00,
2013-01-30 09:28:00,37.1,-14.5,29.48,North,0,0.2,4.3,1,0.01,,,0.12,WUHU216HW,2013-01-30 14:28:00,
2013-01-30 09:29:00,37.1,-14.5,29.48,North,0,0.4,4.3,1,0.01,,,0.12,WUHU216HW,2013-01-30 14:29:00,
2013-01-30 09:32:00,37.1,-14.5,29.48,North,0,1.1,3.4,1,0.01,,,0.12,WUHU216HW,2013-01-30 14:32:00,
2013-01-30 09:33:00,37.1,-14.5,29.48,North,0,0.0,3.4,1,0.01,,,0.12,WUHU216HW,2013-01-30 14:33:00,
2013-01-30 09:34:00,37.1,-14.5,29.47,NNW,338,1.1,2.5,1,0.01,,,0.12,WUHU216HW,2013-01-30 14:34:00,
2013-01-30 09:37:00,37.3,-14.4,29.46,North,0,2.0,2.7,1,0.01,,,0.12,WUHU216HW,2013-01-30 14:37:00,
2013-01-30 09:38:00,37.3,-14.4,29.46,North,0,2.0,2.7,1,0.01,,,0.12,WUHU216HW,2013-01-30 14:38:00,
2013-01-30 09:39:00,37.3,-14.4,29.46,North,0,0.4,2.7,1,0.01,,,0.12,WUHU216HW,2013-01-30 14:39:00,
2013-01-30 09:43:00,37.1,-14.5,29.46,North,0,1.1,2.7,1,0.01,,,0.12,WUHU216HW,2013-01-30 14:43:00,
2013-01-30 09:44:00,37.3,-14.4,29.46,North,0,3.8,3.8,1,0.01,,,0.12,WUHU216HW,2013-01-30 14:44:00,
2013-01-30 09:48:00,37.3,-14.4,29.46,North,0,2.0,3.8,1,0.01,,,0.12,WUHU216HW,2013-01-30 14:48:00,
2013-01-30 09:49:00,37.3,-14.4,29.46,North,0,0.2,3.8,1,0.02,,,0.13,WUHU216HW,2013-01-30 14:49:00,
2013-01-30 09:53:00,37.3,-14.4,29.46,North,0,0.9,3.8,1,0.02,,,0.13,WUHU216HW,2013-01-30 14:53:00,
2013-01-30 09:54:00,37.4,-14.2,29.45,North,0,0.4,2.7,1,0.02,,,0.13,WUHU216HW,2013-01-30 14:54:00,
2013-01-30 09:58:00,37.6,-14.0,29.45,North,0,1.3,1.8,1,0.01,,,0.13,WUHU216HW,2013-01-30 14:58:00,
2013-01-30 10:00:00,37.6,-14.0,29.45,North,0,1.6,1.8,1,0.01,,,0.13,WUHU216HW,2013-01-30 15:00:00,
2013-01-30 10:03:00,37.8,-13.9,29.44,North,0,0.7,2.0,1,0.01,,,0.13,WUHU216HW,2013-01-30 15:03:00,
2013-01-30 10:04:00,37.8,-13.9,29.44,North,0,0.7,2.0,1,0.01,,,0.13,WUHU216HW,2013-01-30 15:04:00,
2013-01-30 10:05:00,38.0,-13.8,29.44,North,0,2.0,2.2,1,0.01,,,0.13,WUHU216HW,2013-01-30 15:05:00,
2013-01-30 10:08:00,38.2,-13.7,29.43,NNW,338,1.6,2.2,1,0.01,,,0.13,WUHU216HW,2013-01-30 15:08:00,
2013-01-30 10:09:00,38.2,-13.7,29.43,NNW,338,1.6,2.2,1,0.01,,,0.13,WUHU216HW,2013-01-30 15:09:00,
2013-01-30 10:10:00,38.2,-13.7,29.44,NNW,338,1.6,2.2,1,0.01,,,0.13,WUHU216HW,2013-01-30 15:10:00,
2013-01-30 10:14:00,38.0,-13.8,29.43,NNW,338,0.7,2.2,1,0.01,,,0.13,WUHU216HW,2013-01-30 15:14:00,
2013-01-30 10:15:00,38.0,-13.8,29.43,North,0,0.2,3.1,1,0.01,,,0.13,WUHU216HW,2013-01-30 15:15:00,
2013-01-30 10:19:00,38.0,-13.8,29.43,North,0,0.7,3.1,1,0.01,,,0.13,WUHU216HW,2013-01-30 15:19:00,
2013-01-30 10:20:00,38.2,-13.7,29.43,North,0,4.0,4.0,1,0.01,,,0.13,WUHU216HW,2013-01-30 15:20:00,
2013-01-30 10:24:00,38.2,-13.7,29.43,North,0,1.1,4.0,1,0.01,,,0.13,WUHU216HW,2013-01-30 15:24:00,
2013-01-30 10:25:00,38.2,-13.7,29.43,NNW,338,4.0,4.0,1,0.01,,,0.13,WUHU216HW,2013-01-30 15:25:00,
2013-01-30 10:29:00,38.0,-13.8,29.42,North,0,3.6,6.9,1,0.02,,,0.14,WUHU216HW,2013-01-30 15:29:00,
2013-01-30 10:30:00,38.0,-13.8,29.42,North,0,1.1,6.9,1,0.02,,,0.14,WUHU216HW,2013-01-30 15:30:00,
2013-01-30 10:34:00,38.0,-13.8,29.41,North,0,3.4,6.9,1,0.02,,,0.14,WUHU216HW,2013-01-30 15:34:00,
2013-01-30 10:35:00,38.0,-13.8,29.41,North,0,3.4,6.9,1,0.02,,,0.14,WUHU216HW,2013-01-30 15:35:00,
2013-01-30 10:39:00,38.0,-13.8,29.41,NNW,338,0.2,4.3,1,0.02,,,0.14,WUHU216HW,2013-01-30 15:39:00,
2013-01-30 10:41:00,38.0,-13.8,29.41,NNW,338,0.2,4.3,1,0.02,,,0.14,WUHU216HW,2013-01-30 15:41:00,
2013-01-30 10:44:00,38.0,-13.8,29.41,North,0,1.8,3.4,1,0.02,,,0.14,WUHU216HW,2013-01-30 15:44:00,
2013-01-30 10:45:00,38.0,-13.8,29.41,North,0,1.1,3.4,1,0.02,,,0.14,WUHU216HW,2013-01-30 15:45:00,
2013-01-30 10:46:00,38.0,-13.8,29.41,North,0,2.7,3.4,1,0.02,,,0.14,WUHU216HW,2013-01-30 15:46:00,
2013-01-30 10:49:00,38.0,-13.8,29.41,North,0,3.4,3.8,1,0.01,,,0.14,WUHU216HW,2013-01-30 15:49:00,
2013-01-30 10:50:00,38.0,-13.8,29.41,North,0,3.4,3.8,1,0.01,,,0.14,WUHU216HW,2013-01-30 15:50:00,
2013-01-30 10:51:00,38.0,-13.8,29.41,North,0,2.5,3.8,1,0.01,,,0.14,WUHU216HW,2013-01-30 15:51:00,
2013-01-30 10:54:00,37.8,-13.9,29.41,North,0,1.6,3.8,1,0.01,,,0.14,WUHU216HW,2013-01-30 15:54:00,
2013-01-30 10:55:00,37.8,-13.9,29.41,North,0,4.7,4.7,1,0.01,,,0.14,WUHU216HW,2013-01-30 15:55:00,
2013-01-30 10:56:00,37.8,-13.9,29.41,North,0,3.8,4.7,1,0.01,,,0.14,WUHU216HW,2013-01-30 15:56:00,
2013-01-30 10:59:00,37.8,-13.9,29.40,North,0,1.1,4.7,1,0.01,,,0.14,WUHU216HW,2013-01-30 15:59:00,
2013-01-30 11:00:00,37.8,-13.9,29.40,North,0,1.1,4.7,1,0.01,,,0.14,WUHU216HW,2013-01-30 16:00:00,
2013-01-30 11:01:00,37.8,-13.9,29.40,North,0,1.3,4.7,1,0.01,,,0.14,WUHU216HW,2013-01-30 16:01:00,
2013-01-30 11:04:00,37.8,-13.9,29.41,North,0,1.3,4.7,1,0.01,,,0.14,WUHU216HW,2013-01-30 16:04:00,
2013-01-30 11:05:00,37.8,-13.9,29.41,North,0,1.3,4.7,1,0.01,,,0.14,WUHU216HW,2013-01-30 16:05:00,
2013-01-30 11:06:00,37.8,-13.9,29.41,North,0,1.8,4.0,1,0.01,,,0.14,WUHU216HW,2013-01-30 16:06:00,
2013-01-30 11:10:00,37.8,-13.9,29.41,North,0,2.0,4.0,1,0.01,,,0.14,WUHU216HW,2013-01-30 16:10:00,
2013-01-30 11:12:00,37.8,-13.9,29.40,North,0,2.7,4.0,1,0.01,,,0.14,WUHU216HW,2013-01-30 16:12:00,
2013-01-30 11:15:00,38.0,-13.8,29.40,North,0,1.3,3.6,1,0.01,,,0.14,WUHU216HW,2013-01-30 16:15:00,
2013-01-30 11:17:00,38.0,-13.8,29.40,North,0,4.5,4.5,1,0.01,,,0.14,WUHU216HW,2013-01-30 16:17:00,
2013-01-30 11:20:00,38.0,-13.8,29.39,North,0,3.6,4.5,1,0.01,,,0.14,WUHU216HW,2013-01-30 16:20:00,
2013-01-30 11:22:00,38.2,-13.7,29.39,North,0,0.7,4.5,1,0.01,,,0.14,WUHU216HW,2013-01-30 16:22:00,
2013-01-30 11:25:00,38.0,-13.8,29.38,North,0,2.2,4.5,1,0.00,,,0.14,WUHU216HW,2013-01-30 16:25:00,
2013-01-30 11:26:00,38.2,-13.7,29.38,North,0,1.1,4.5,1,0.00,,,0.14,WUHU216HW,2013-01-30 16:26:00,
2013-01-30 11:27:00,38.2,-13.7,29.39,North,0,3.1,4.5,1,0.00,,,0.14,WUHU216HW,2013-01-30 16:27:00,
2013-01-30 11:30:00,38.3,-13.5,29.38,North,0,4.3,5.6,1,0.00,,,0.14,WUHU216HW,2013-01-30 16:30:00,
2013-01-30 11:31:00,38.3,-13.5,29.38,North,0,2.7,5.6,1,0.00,,,0.14,WUHU216HW,2013-01-30 16:31:00,
2013-01-30 11:32:00,38.3,-13.5,29.37,North,0,4.9,5.6,1,0.01,,,0.15,WUHU216HW,2013-01-30 16:32:00,
2013-01-30 11:35:00,38.3,-13.5,29.36,North,0,1.8,5.6,1,0.01,,,0.15,WUHU216HW,2013-01-30 16:35:00,
2013-01-30 11:36:00,38.3,-13.5,29.36,North,0,0.7,5.6,1,0.01,,,0.15,WUHU216HW,2013-01-30 16:36:00,
2013-01-30 11:38:00,38.3,-13.5,29.36,NNW,338,1.8,5.6,1,0.01,,,0.15,WUHU216HW,2013-01-30 16:38:00,
2013-01-30 11:40:00,38.2,-13.7,29.36,North,0,0.4,5.4,1,0.01,,,0.15,WUHU216HW,2013-01-30 16:40:00,
2013-01-30 11:41:00,38.2,-13.7,29.36,NW,315,0.9,5.4,1,0.01,,,0.15,WUHU216HW,2013-01-30 16:41:00,
2013-01-30 11:43:00,38.3,-13.5,29.37,North,0,0.4,4.7,1,0.01,,,0.15,WUHU216HW,2013-01-30 16:43:00,
2013-01-30 11:46:00,38.3,-13.5,29.36,North,0,4.0,4.0,1,0.01,,,0.15,WUHU216HW,2013-01-30 16:46:00,
2013-01-30 11:48:00,38.3,-13.5,29.35,North,0,6.0,6.0,1,0.01,,,0.15,WUHU216HW,2013-01-30 16:48:00,
2013-01-30 11:51:00,38.2,-13.7,29.35,North,0,4.5,6.0,1,0.01,,,0.15,WUHU216HW,2013-01-30 16:51:00,
2013-01-30 11:52:00,38.2,-13.7,29.35,North,0,2.5,6.0,1,0.01,,,0.15,WUHU216HW,2013-01-30 16:52:00,
2013-01-30 11:53:00,38.3,-13.5,29.34,North,0,2.9,6.0,1,0.01,,,0.15,WUHU216HW,2013-01-30 16:53:00,
2013-01-30 11:56:00,38.3,-13.5,29.35,North,0,1.1,6.0,1,0.01,,,0.15,WUHU216HW,2013-01-30 16:56:00,
2013-01-30 11:57:00,38.5,-13.3,29.34,North,0,4.9,6.0,1,0.01,,,0.15,WUHU216HW,2013-01-30 16:57:00,
2013-01-30 11:58:00,38.7,-13.2,29.33,North,0,6.3,7.4,1,0.01,,,0.15,WUHU216HW,2013-01-30 16:58:00,
2013-01-30 12:01:00,38.7,-13.2,29.33,NNW,338,1.3,7.4,1,0.01,,,0.15,WUHU216HW,2013-01-30 17:01:00,
2013-01-30 12:02:00,38.9,-13.0,29.33,North,0,1.1,7.4,1,0.01,,,0.15,WUHU216HW,2013-01-30 17:02:00,
2013-01-30 12:03:00,38.9,-13.0,29.33,North,0,1.8,7.4,1,0.01,,,0.15,WUHU216HW,2013-01-30 17:03:00,
2013-01-30 12:06:00,39.2,-12.8,29.33,North,0,3.6,7.4,1,0.01,,,0.15,WUHU216HW,2013-01-30 17:06:00,
2013-01-30 12:07:00,39.4,-12.6,29.32,North,0,8.5,8.7,1,0.01,,,0.15,WUHU216HW,2013-01-30 17:07:00,
2013-01-30 12:08:00,39.2,-12.8,29.32,North,0,8.1,8.7,1,0.01,,,0.15,WUHU216HW,2013-01-30 17:08:00,
2013-01-30 12:11:00,39.2,-12.8,29.33,North,0,9.2,9.2,1,0.01,,,0.15,WUHU216HW,2013-01-30 17:11:00,
2013-01-30 12:12:00,39.2,-12.8,29.33,North,0,7.2,9.2,1,0.01,,,0.15,WUHU216HW,2013-01-30 17:12:00,
2013-01-30 12:13:00,39.2,-12.8,29.32,North,0,4.0,9.2,1,0.01,,,0.15,WUHU216HW,2013-01-30 17:13:00,
2013-01-30 12:16:00,38.9,-13.0,29.32,North,0,5.8,9.2,1,0.01,,,0.15,WUHU216HW,2013-01-30 17:16:00,
2013-01-30 12:17:00,38.9,-13.0,29.32,North,0,9.2,9.2,1,0.01,,,0.15,WUHU216HW,2013-01-30 17:17:00,
2013-01-30 12:18:00,38.9,-13.0,29.32,North,0,4.9,9.2,1,0.01,,,0.15,WUHU216HW,2013-01-30 17:18:00,
2013-01-30 12:19:00,38.9,-13.0,29.32,North,0,2.0,9.2,1,0.01,,,0.15,WUHU216HW,2013-01-30 17:19:00,
2013-01-30 12:22:00,38.9,-13.0,29.32,North,0,6.3,11.9,1,0.01,,,0.15,WUHU216HW,2013-01-30 17:22:00,
2013-01-30 12:23:00,38.9,-13.0,29.31,North,0,4.5,11.9,1,0.01,,,0.15,WUHU216HW,2013-01-30 17:23:00,
2013-01-30 12:24:00,38.9,-13.0,29.31,SSW,203,3.1,11.9,1,0.01,,,0.15,WUHU216HW,2013-01-30 17:24:00,
2013-01-30 12:27:00,39.1,-13.0,29.31,SSW,203,4.7,11.9,1,0.01,,,0.15,WUHU216HW,2013-01-30 17:27:00,
2013-01-30 12:28:00,39.1,-13.0,29.32,SSW,203,10.5,11.9,1,0.00,,,0.15,WUHU216HW,2013-01-30 17:28:00,
2013-01-30 12:29:00,39.1,-13.0,29.32,North,0,6.3,11.9,1,0.00,,,0.15,WUHU216HW,2013-01-30 17:29:00,
2013-01-30 12:32:00,39.2,-12.8,29.32,North,0,4.0,10.5,1,0.00,,,0.15,WUHU216HW,2013-01-30 17:32:00,
2013-01-30 12:33:00,39.2,-12.8,29.31,North,0,5.4,10.5,1,0.00,,,0.15,WUHU216HW,2013-01-30 17:33:00,
2013-01-30 12:34:00,39.4,-12.6,29.31,North,0,1.6,10.5,1,0.00,,,0.15,WUHU216HW,2013-01-30 17:34:00,
2013-01-30 12:37:00,39.8,-12.3,29.30,North,0,3.1,10.5,1,0.00,,,0.15,WUHU216HW,2013-01-30 17:37:00,
2013-01-30 12:38:00,39.8,-12.3,29.30,SW,225,0.7,9.8,1,0.00,,,0.15,WUHU216HW,2013-01-30 17:38:00,
2013-01-30 12:39:00,39.8,-12.3,29.30,SSW,203,1.1,9.8,1,0.00,,,0.15,WUHU216HW,2013-01-30 17:39:00,
2013-01-30 12:42:00,40.0,-12.2,29.30,NNW,338,1.6,6.5,1,0.00,,,0.15,WUHU216HW,2013-01-30 17:42:00,
2013-01-30 12:43:00,39.8,-12.3,29.30,North,0,4.0,6.5,1,0.00,,,0.15,WUHU216HW,2013-01-30 17:43:00,
2013-01-30 12:44:00,39.8,-12.3,29.30,North,0,4.3,6.5,1,0.01,,,0.16,WUHU216HW,2013-01-30 17:44:00,
2013-01-30 12:47:00,39.8,-12.3,29.31,North,0,4.3,6.5,1,0.01,,,0.16,WUHU216HW,2013-01-30 17:47:00,
2013-01-30 12:48:00,39.6,-12.5,29.30,North,0,10.1,10.1,1,0.01,,,0.16,WUHU216HW,2013-01-30 17:48:00,
2013-01-30 12:49:00,39.6,-12.5,29.30,North,0,4.7,10.1,1,0.01,,,0.16,WUHU216HW,2013-01-30 17:49:00,
2013-01-30 12:53:00,39.4,-12.6,29.30,North,0,6.5,10.1,1,0.01,,,0.16,WUHU216HW,2013-01-30 17:53:00,
2013-01-30 12:54:00,39.2,-12.8,29.30,North,0,2.0,10.1,1,0.01,,,0.16,WUHU216HW,2013-01-30 17:54:00,
2013-01-30 12:58:00,39.2,-12.8,29.30,North,0,1.1,10.1,1,0.01,,,0.16,WUHU216HW,2013-01-30 17:58:00,
2013-01-30 12:59:00,39.2,-12.8,29.30,West,270,1.8,6.5,1,0.01,,,0.16,WUHU216HW,2013-01-30 17:59:00,
2013-01-30 13:03:00,39.4,-12.6,29.30,WNW,293,1.8,4.7,1,0.01,,,0.16,WUHU216HW,2013-01-30 18:03:00,
2013-01-30 13:04:00,39.2,-12.8,29.30,WNW,293,0.4,4.7,1,0.01,,,0.16,WUHU216HW,2013-01-30 18:04:00,
2013-01-30 13:08:00,39.8,-12.3,29.28,North,0,4.7,4.7,1,0.01,,,0.16,WUHU216HW,2013-01-30 18:08:00,
2013-01-30 13:09:00,39.8,-12.3,29.28,North,0,2.9,6.3,1,0.01,,,0.16,WUHU216HW,2013-01-30 18:09:00,
2013-01-30 13:13:00,40.0,-12.2,29.29,SSW,203,2.5,6.3,1,0.01,,,0.16,WUHU216HW,2013-01-30 18:13:00,
2013-01-30 13:14:00,40.0,-12.2,29.29,SSW,203,0.4,6.3,1,0.01,,,0.16,WUHU216HW,2013-01-30 18:14:00,
2013-01-30 13:18:00,40.0,-12.2,29.28,West,270,0.7,6.3,1,0.01,,,0.16,WUHU216HW,2013-01-30 18:18:00,
2013-01-30 13:19:00,40.0,-12.2,29.28,North,0,2.0,2.5,1,0.01,,,0.16,WUHU216HW,2013-01-30 18:19:00,
2013-01-30 13:20:00,40.0,-12.2,29.28,North,0,0.9,2.5,1,0.01,,,0.16,WUHU216HW,2013-01-30 18:20:00,
2013-01-30 13:23:00,40.1,-12.1,29.28,North,0,0.2,4.0,1,0.01,,,0.16,WUHU216HW,2013-01-30 18:23:00,
2013-01-30 13:24:00,40.1,-12.1,29.28,North,0,1.6,4.0,1,0.01,,,0.16,WUHU216HW,2013-01-30 18:24:00,
2013-01-30 13:25:00,40.1,-12.1,29.28,North,0,0.7,4.0,1,0.01,,,0.16,WUHU216HW,2013-01-30 18:25:00,
2013-01-30 13:28:00,40.1,-12.1,29.28,North,0,1.3,4.0,1,0.01,,,0.16,WUHU216HW,2013-01-30 18:28:00,
2013-01-30 13:29:00,40.1,-12.1,29.28,NNW,338,0.4,4.0,1,0.01,,,0.16,WUHU216HW,2013-01-30 18:29:00,
2013-01-30 13:30:00,40.1,-12.1,29.28,West,270,1.3,4.0,1,0.01,,,0.16,WUHU216HW,2013-01-30 18:30:00,
2013-01-30 13:34:00,40.3,-11.9,29.29,North,0,0.0,2.5,1,0.01,,,0.16,WUHU216HW,2013-01-30 18:34:00,
2013-01-30 13:35:00,40.3,-11.9,29.29,North,0,0.7,2.5,1,0.01,,,0.16,WUHU216HW,2013-01-30 18:35:00,
2013-01-30 13:39:00,40.7,-11.6,29.29,North,0,0.4,3.4,1,0.01,,,0.16,WUHU216HW,2013-01-30 18:39:00,
2013-01-30 13:40:00,40.7,-11.6,29.29,North,0,3.1,3.4,1,0.01,,,0.16,WUHU216HW,2013-01-30 18:40:00,
2013-01-30 13:44:00,40.9,-11.5,29.29,North,0,1.8,4.9,1,0.00,,,0.16,WUHU216HW,2013-01-30 18:44:00,
2013-01-30 13:45:00,41.0,-11.3,29.28,North,0,1.3,4.9,1,0.00,,,0.16,WUHU216HW,2013-01-30 18:45:00,
2013-01-30 13:49:00,41.2,-11.2,29.28,SW,225,1.6,4.9,1,0.00,,,0.16,WUHU216HW,2013-01-30 18:49:00,
2013-01-30 13:50:00,41.4,-11.1,29.28,SW,225,0.2,4.9,1,0.00,,,0.16,WUHU216HW,2013-01-30 18:50:00,
2013-01-30 13:52:00,41.4,-11.1,29.28,WNW,293,3.1,3.1,1,0.00,,,0.16,WUHU216HW,2013-01-30 18:52:00,
2013-01-30 13:54:00,41.4,-11.1,29.28,SSW,203,0.7,4.0,1,0.00,,,0.16,WUHU216HW,2013-01-30 18:54:00,
2013-01-30 13:55:00,41.4,-11.1,29.28,SSW,203,1.1,4.0,1,0.00,,,0.16,WUHU216HW,2013-01-30 18:55:00,
2013-01-30 13:57:00,41.6,-11.0,29.28,SSW,203,1.1,4.0,1,0.00,,,0.16,WUHU216HW,2013-01-30 18:57:00,
2013-01-30 13:59:00,41.6,-11.0,29.28,SSW,203,0.0,4.0,1,0.00,,,0.16,WUHU216HW,2013-01-30 18:59:00,
2013-01-30 14:00:00,41.8,-10.8,29.28,SSW,203,0.0,4.0,1,0.00,,,0.16,WUHU216HW,2013-01-30 19:00:00,
2013-01-30 14:01:00,41.8,-10.8,29.28,SSW,203,0.0,4.0,1,0.00,,,0.16,WUHU216HW,2013-01-30 19:01:00,
2013-01-30 14:02:00,41.8,-10.8,29.28,SSW,203,0.0,4.0,1,0.00,,,0.16,WUHU216HW,2013-01-30 19:02:00,
2013-01-30 14:04:00,41.8,-10.8,29.28,SSW,203,0.0,1.1,1,0.00,,,0.16,WUHU216HW,2013-01-30 19:04:00,
2013-01-30 14:05:00,41.8,-10.8,29.28,SSW,203,0.0,1.1,1,0.00,,,0.16,WUHU216HW,2013-01-30 19:05:00,
2013-01-30 14:06:00,41.8,-10.8,29.28,SSW,203,1.3,1.3,1,0.00,,,0.16,WUHU216HW,2013-01-30 19:06:00,
2013-01-30 14:08:00,41.8,-10.8,29.28,SSW,203,0.7,2.7,1,0.00,,,0.16,WUHU216HW,2013-01-30 19:08:00,
2013-01-30 14:09:00,41.8,-10.8,29.28,SSW,203,0.2,2.7,1,0.00,,,0.16,WUHU216HW,2013-01-30 19:09:00,
2013-01-30 14:10:00,41.6,-11.0,29.28,SSW,203,0.0,2.7,1,0.00,,,0.16,WUHU216HW,2013-01-30 19:10:00,
2013-01-30 14:11:00,41.6,-11.0,29.28,SSW,203,0.7,2.7,1,0.00,,,0.16,WUHU216HW,2013-01-30 19:11:00,
2013-01-30 14:13:00,41.6,-11.0,29.28,SSW,203,0.0,2.7,1,0.00,,,0.16,WUHU216HW,2013-01-30 19:13:00,
2013-01-30 14:14:00,41.4,-11.1,29.28,SSW,203,1.6,2.7,1,0.00,,,0.16,WUHU216HW,2013-01-30 19:14:00,
2013-01-30 14:15:00,41.4,-11.1,29.28,SSW,203,0.2,2.7,1,0.00,,,0.16,WUHU216HW,2013-01-30 19:15:00,
2013-01-30 14:16:00,41.4,-11.1,29.28,SSW,203,1.1,2.7,1,0.00,,,0.16,WUHU216HW,2013-01-30 19:16:00,
2013-01-30 14:18:00,41.4,-11.1,29.28,SSW,203,1.8,4.5,1,0.00,,,0.16,WUHU216HW,2013-01-30 19:18:00,
2013-01-30 14:19:00,41.4,-11.1,29.28,SSW,203,0.7,4.5,1,0.00,,,0.16,WUHU216HW,2013-01-30 19:19:00,
2013-01-30 14:20:00,41.2,-11.2,29.28,SSW,203,0.4,4.5,1,0.00,,,0.16,WUHU216HW,2013-01-30 19:20:00,
2013-01-30 14:21:00,41.2,-11.2,29.28,SSW,203,0.9,4.5,1,0.00,,,0.16,WUHU216HW,2013-01-30 19:21:00,
2013-01-30 14:23:00,41.2,-11.2,29.28,SSW,203,0.9,4.5,1,0.00,,,0.16,WUHU216HW,2013-01-30 19:23:00,
2013-01-30 14:24:00,41.2,-11.2,29.28,SSW,203,0.4,4.5,1,0.00,,,0.16,WUHU216HW,2013-01-30 19:24:00,
2013-01-30 14:25:00,41.2,-11.2,29.28,SSW,203,0.7,4.5,1,0.00,,,0.16,WUHU216HW,2013-01-30 19:25:00,
2013-01-30 14:26:00,41.0,-11.3,29.28,SSW,203,0.4,4.5,1,0.00,,,0.16,WUHU216HW,2013-01-30 19:26:00,
2013-01-30 14:28:00,41.0,-11.3,29.28,SSW,203,0.7,2.2,1,0.00,,,0.16,WUHU216HW,2013-01-30 19:28:00,
2013-01-30 14:29:00,41.0,-11.3,29.28,SSW,203,0.4,2.2,1,0.00,,,0.16,WUHU216HW,2013-01-30 19:29:00,
2013-01-30 14:30:00,41.0,-11.3,29.28,SSW,203,0.0,2.2,1,0.00,,,0.16,WUHU216HW,2013-01-30 19:30:00,
2013-01-30 14:32:00,40.9,-11.5,29.28,SSW,203,2.5,2.5,1,0.00,,,0.16,WUHU216HW,2013-01-30 19:32:00,
2013-01-30 14:33:00,40.9,-11.5,29.28,SSW,203,1.1,2.5,1,0.00,,,0.16,WUHU216HW,2013-01-30 19:33:00,
2013-01-30 14:34:00,40.9,-11.5,29.28,SSW,203,2.7,2.7,1,0.00,,,0.16,WUHU216HW,2013-01-30 19:34:00,
2013-01-30 14:35:00,41.0,-11.3,29.28,SSW,203,2.7,2.7,1,0.00,,,0.16,WUHU216HW,2013-01-30 19:35:00,
2013-01-30 14:37:00,41.0,-11.3,29.28,SSW,203,0.0,2.7,1,0.00,,,0.16,WUHU216HW,2013-01-30 19:37:00,
2013-01-30 14:38:00,41.0,-11.3,29.28,SSW,203,3.4,3.4,1,0.00,,,0.16,WUHU216HW,2013-01-30 19:38:00,
2013-01-30 14:39:00,41.0,-11.3,29.28,NW,315,0.2,3.4,1,0.00,,,0.16,WUHU216HW,2013-01-30 19:39:00,
2013-01-30 14:41:00,41.2,-11.2,29.28,North,0,1.3,3.4,1,0.00,,,0.16,WUHU216HW,2013-01-30 19:41:00,
2013-01-30 14:42:00,41.2,-11.2,29.28,North,0,1.6,3.4,1,0.00,,,0.16,WUHU216HW,2013-01-30 19:42:00,
2013-01-30 14:43:00,41.4,-11.1,29.28,North,0,1.6,4.0,1,0.00,,,0.16,WUHU216HW,2013-01-30 19:43:00,
2013-01-30 14:45:00,41.4,-11.1,29.27,North,0,1.1,4.0,1,0.00,,,0.16,WUHU216HW,2013-01-30 19:45:00,
2013-01-30 14:46:00,41.4,-11.1,29.28,North,0,2.0,4.0,1,0.00,,,0.16,WUHU216HW,2013-01-30 19:46:00,
2013-01-30 14:47:00,41.6,-11.0,29.28,North,0,0.4,4.0,1,0.00,,,0.16,WUHU216HW,2013-01-30 19:47:00,
2013-01-30 14:48:00,41.8,-10.8,29.28,North,0,2.5,4.0,1,0.00,,,0.16,WUHU216HW,2013-01-30 19:48:00,
2013-01-30 14:50:00,41.8,-10.8,29.28,WSW,248,0.0,4.0,1,0.00,,,0.16,WUHU216HW,2013-01-30 19:50:00,
2013-01-30 14:51:00,41.8,-10.8,29.28,North,0,0.2,4.0,1,0.00,,,0.16,WUHU216HW,2013-01-30 19:51:00,
2013-01-30 14:52:00,41.8,-10.8,29.28,North,0,0.4,4.0,1,0.00,,,0.16,WUHU216HW,2013-01-30 19:52:00,
2013-01-30 14:53:00,41.6,-11.0,29.28,North,0,2.9,2.9,1,0.00,,,0.16,WUHU216HW,2013-01-30 19:53:00,
2013-01-30 14:55:00,41.8,-10.8,29.28,North,0,1.8,2.9,1,0.00,,,0.16,WUHU216HW,2013-01-30 19:55:00,
2013-01-30 14:56:00,41.8,-10.8,29.27,North,0,0.7,2.9,1,0.00,,,0.16,WUHU216HW,2013-01-30 19:56:00,
2013-01-30 14:57:00,41.8,-10.8,29.28,North,0,0.4,2.9,1,0.00,,,0.16,WUHU216HW,2013-01-30 19:57:00,
2013-01-30 14:58:00,41.8,-10.8,29.28,North,0,1.8,2.9,1,0.00,,,0.16,WUHU216HW,2013-01-30 19:58:00,
2013-01-30 15:00:00,41.8,-10.8,29.27,North,0,1.1,2.9,1,0.00,,,0.16,WUHU216HW,2013-01-30 20:00:00,
2013-01-30 15:01:00,41.8,-10.8,29.27,North,0,1.1,2.9,1,0.01,,,0.17,WUHU216HW,2013-01-30 20:01:00,
2013-01-30 15:02:00,41.8,-10.8,29.27,North,0,0.7,2.9,1,0.01,,,0.17,WUHU216HW,2013-01-30 20:02:00,
2013-01-30 15:04:00,41.8,-10.8,29.27,North,0,0.2,2.7,1,0.01,,,0.17,WUHU216HW,2013-01-30 20:04:00,
2013-01-30 15:05:00,41.8,-10.8,29.26,North,0,2.0,2.7,1,0.01,,,0.17,WUHU216HW,2013-01-30 20:05:00,
2013-01-30 15:06:00,41.8,-10.8,29.26,North,0,2.5,2.7,1,0.01,,,0.17,WUHU216HW,2013-01-30 20:06:00,
2013-01-30 15:07:00,41.9,-10.7,29.25,North,0,1.6,2.7,1,0.01,,,0.17,WUHU216HW,2013-01-30 20:07:00,
2013-01-30 15:09:00,42.1,-10.6,29.26,North,0,1.6,2.7,1,0.01,,,0.17,WUHU216HW,2013-01-30 20:09:00,
2013-01-30 15:10:00,42.1,-10.6,29.26,North,0,1.1,2.7,1,0.01,,,0.17,WUHU216HW,2013-01-30 20:10:00,
2013-01-30 15:12:00,42.1,-10.6,29.26,North,0,3.6,4.0,1,0.01,,,0.17,WUHU216HW,2013-01-30 20:12:00,
2013-01-30 15:14:00,42.5,-10.3,29.26,North,0,2.7,7.8,1,0.01,,,0.17,WUHU216HW,2013-01-30 20:14:00,
2013-01-30 15:15:00,42.5,-10.3,29.26,North,0,4.5,7.8,1,0.01,,,0.17,WUHU216HW,2013-01-30 20:15:00,
2013-01-30 15:17:00,42.5,-10.3,29.25,North,0,3.8,7.8,1,0.01,,,0.17,WUHU216HW,2013-01-30 20:17:00,
2013-01-30 15:18:00,42.7,-10.2,29.25,North,0,3.4,7.8,1,0.01,,,0.17,WUHU216HW,2013-01-30 20:18:00,
2013-01-30 15:19:00,42.7,-10.2,29.25,North,0,3.4,7.8,1,0.01,,,0.17,WUHU216HW,2013-01-30 20:19:00,
2013-01-30 15:20:00,42.7,-10.2,29.25,North,0,0.0,7.8,1,0.01,,,0.17,WUHU216HW,2013-01-30 20:20:00,
2013-01-30 15:22:00,42.7,-10.2,29.24,North,0,2.5,5.6,1,0.01,,,0.17,WUHU216HW,2013-01-30 20:22:00,
2013-01-30 15:23:00,42.7,-10.2,29.23,North,0,2.5,5.6,1,0.01,,,0.17,WUHU216HW,2013-01-30 20:23:00,
2013-01-30 15:24:00,42.7,-10.2,29.23,North,0,2.5,4.5,1,0.01,,,0.17,WUHU216HW,2013-01-30 20:24:00,
2013-01-30 15:26:00,43.0,-9.9,29.23,North,0,4.5,4.5,1,0.01,,,0.17,WUHU216HW,2013-01-30 20:26:00,
2013-01-30 15:27:00,45.5,-7.9,29.23,North,0,4.5,6.9,1,0.01,,,0.17,WUHU216HW,2013-01-30 20:27:00,
2013-01-30 15:28:00,45.9,-7.6,29.23,North,0,4.7,6.9,1,0.01,,,0.17,WUHU216HW,2013-01-30 20:28:00,
2013-01-30 15:29:00,46.3,-7.4,29.24,North,0,2.0,6.9,1,0.01,,,0.17,WUHU216HW,2013-01-30 20:29:00,
2013-01-30 15:31:00,46.4,-7.2,29.24,North,0,2.7,6.9,1,0.01,,,0.17,WUHU216HW,2013-01-30 20:31:00,
2013-01-30 15:33:00,46.1,-7.5,29.24,North,0,6.0,6.9,1,0.01,,,0.17,WUHU216HW,2013-01-30 20:33:00,
2013-01-30 15:34:00,45.5,-7.9,29.24,North,0,3.4,6.9,1,0.01,,,0.17,WUHU216HW,2013-01-30 20:34:00,
2013-01-30 15:36:00,45.2,-8.2,29.23,North,0,7.6,7.6,1,0.01,,,0.17,WUHU216HW,2013-01-30 20:36:00,
2013-01-30 15:38:00,45.0,-8.4,29.23,SSW,203,6.0,7.6,1,0.01,,,0.17,WUHU216HW,2013-01-30 20:38:00,
2013-01-30 15:39:00,45.0,-8.4,29.23,SSW,203,4.7,7.6,1,0.01,,,0.17,WUHU216HW,2013-01-30 20:39:00,
2013-01-30 15:41:00,45.0,-8.4,29.23,SSW,203,3.1,8.5,1,0.01,,,0.17,WUHU216HW,2013-01-30 20:41:00,
2013-01-30 15:43:00,44.8,-8.4,29.23,North,0,3.6,8.5,1,0.01,,,0.17,WUHU216HW,2013-01-30 20:43:00,
2013-01-30 15:44:00,44.8,-8.4,29.23,North,0,3.4,8.5,1,0.01,,,0.17,WUHU216HW,2013-01-30 20:44:00,
2013-01-30 15:46:00,45.0,-8.4,29.23,North,0,1.6,8.5,1,0.01,,,0.17,WUHU216HW,2013-01-30 20:46:00,
2013-01-30 15:48:00,44.8,-8.4,29.23,North,0,3.4,8.5,1,0.01,,,0.17,WUHU216HW,2013-01-30 20:48:00,
2013-01-30 15:49:00,44.8,-8.4,29.23,North,0,2.9,8.5,1,0.01,,,0.17,WUHU216HW,2013-01-30 20:49:00,
2013-01-30 15:51:00,44.8,-8.4,29.22,North,0,4.0,5.4,1,0.01,,,0.17,WUHU216HW,2013-01-30 20:51:00,
2013-01-30 15:53:00,45.0,-8.4,29.23,North,0,1.1,4.9,1,0.01,,,0.17,WUHU216HW,2013-01-30 20:53:00,
2013-01-30 15:54:00,44.8,-8.4,29.23,SW,225,1.8,4.3,1,0.01,,,0.17,WUHU216HW,2013-01-30 20:54:00,
2013-01-30 15:55:00,44.8,-8.4,29.23,WSW,248,1.3,4.3,1,0.01,,,0.17,WUHU216HW,2013-01-30 20:55:00,
2013-01-30 15:57:00,44.5,-8.8,29.23,WNW,293,0.7,4.3,1,0.01,,,0.17,WUHU216HW,2013-01-30 20:57:00,
2013-01-30 15:58:00,44.3,-8.9,29.24,WNW,293,0.4,4.3,1,0.01,,,0.17,WUHU216HW,2013-01-30 20:58:00,
2013-01-30 16:00:00,44.3,-8.9,29.24,WNW,293,0.0,4.3,1,0.00,,,0.17,WUHU216HW,2013-01-30 21:00:00,
2013-01-30 16:02:00,44.1,-9.1,29.23,North,0,2.5,2.5,1,0.01,,,0.18,WUHU216HW,2013-01-30 21:02:00,
2013-01-30 16:03:00,44.1,-9.1,29.23,North,0,2.5,3.4,1,0.01,,,0.18,WUHU216HW,2013-01-30 21:03:00,
2013-01-30 16:05:00,43.9,-9.2,29.24,WNW,293,0.7,3.4,1,0.01,,,0.18,WUHU216HW,2013-01-30 21:05:00,
2013-01-30 16:06:00,43.7,-9.4,29.24,North,0,1.8,3.4,1,0.01,,,0.18,WUHU216HW,2013-01-30 21:06:00,
2013-01-30 16:07:00,43.6,-9.5,29.24,North,0,0.2,3.4,1,0.01,,,0.18,WUHU216HW,2013-01-30 21:07:00,
2013-01-30 16:08:00,43.6,-9.5,29.24,North,0,0.9,3.4,1,0.01,,,0.18,WUHU216HW,2013-01-30 21:08:00,
2013-01-30 16:10:00,43.4,-9.6,29.24,North,0,3.4,3.4,1,0.01,,,0.18,WUHU216HW,2013-01-30 21:10:00,
2013-01-30 16:11:00,43.2,-9.8,29.24,North,0,4.7,4.7,1,0.01,,,0.18,WUHU216HW,2013-01-30 21:11:00,
2013-01-30 16:12:00,43.0,-9.9,29.24,North,0,0.7,4.7,1,0.01,,,0.18,WUHU216HW,2013-01-30 21:12:00,
2013-01-30 16:13:00,43.0,-9.9,29.24,North,0,1.8,4.7,1,0.01,,,0.18,WUHU216HW,2013-01-30 21:13:00,
2013-01-30 16:15:00,43.2,-9.8,29.24,North,0,4.5,4.7,1,0.01,,,0.18,WUHU216HW,2013-01-30 21:15:00,
2013-01-30 16:16:00,43.6,-9.5,29.24,SSW,203,1.1,4.7,1,0.01,,,0.18,WUHU216HW,2013-01-30 21:16:00,
2013-01-30 16:18:00,43.7,-9.4,29.23,SSW,203,5.4,5.4,1,0.01,,,0.18,WUHU216HW,2013-01-30 21:18:00,
2013-01-30 16:20:00,44.1,-9.1,29.24,SSW,203,2.0,5.4,1,0.01,,,0.18,WUHU216HW,2013-01-30 21:20:00,
2013-01-30 16:21:00,44.3,-8.9,29.24,SSW,203,0.7,5.4,1,0.01,,,0.18,WUHU216HW,2013-01-30 21:21:00,
2013-01-30 16:23:00,44.5,-8.8,29.24,SSW,203,0.7,5.4,1,0.01,,,0.18,WUHU216HW,2013-01-30 21:23:00,
2013-01-30 16:25:00,45.0,-8.4,29.24,SSW,203,1.1,5.4,1,0.01,,,0.18,WUHU216HW,2013-01-30 21:25:00,
2013-01-30 16:26:00,45.0,-8.4,29.24,SSW,203,1.8,5.4,1,0.01,,,0.18,WUHU216HW,2013-01-30 21:26:00,
2013-01-30 16:28:00,45.7,-7.7,29.24,West,270,1.8,5.4,1,0.02,,,0.19,WUHU216HW,2013-01-30 21:28:00,
2013-01-30 16:30:00,46.8,-6.9,29.23,North,0,1.6,5.4,1,0.02,,,0.19,WUHU216HW,2013-01-30 21:30:00,
2013-01-30 16:31:00,46.6,-7.0,29.23,SSW,203,3.1,5.4,1,0.02,,,0.19,WUHU216HW,2013-01-30 21:31:00,
2013-01-30 16:33:00,46.6,-7.0,29.23,West,270,0.7,5.4,1,0.02,,,0.19,WUHU216HW,2013-01-30 21:33:00,
2013-01-30 16:34:00,46.8,-6.9,29.23,SSW,203,1.1,5.4,1,0.02,,,0.19,WUHU216HW,2013-01-30 21:34:00,
2013-01-30 16:35:00,47.2,-6.7,29.23,WSW,248,9.2,9.2,1,0.02,,,0.19,WUHU216HW,2013-01-30 21:35:00,
2013-01-30 16:36:00,47.3,-6.5,29.23,SW,225,2.0,9.2,1,0.02,,,0.19,WUHU216HW,2013-01-30 21:36:00,
2013-01-30 16:38:00,47.9,-6.0,29.23,WNW,293,1.6,9.2,1,0.02,,,0.19,WUHU216HW,2013-01-30 21:38:00,
2013-01-30 16:39:00,48.1,-5.9,29.23,WNW,293,0.2,9.2,1,0.02,,,0.19,WUHU216HW,2013-01-30 21:39:00,
2013-01-30 16:40:00,48.2,-5.8,29.22,North,0,1.6,9.2,1,0.02,,,0.19,WUHU216HW,2013-01-30 21:40:00,
2013-01-30 16:41:00,48.6,-5.5,29.22,North,0,3.8,9.2,1,0.02,,,0.19,WUHU216HW,2013-01-30 21:41:00,
2013-01-30 16:43:00,48.8,-5.4,29.22,North,0,0.9,9.2,1,0.02,,,0.19,WUHU216HW,2013-01-30 21:43:00,
2013-01-30 16:44:00,48.6,-5.5,29.23,NNW,338,2.5,9.2,1,0.02,,,0.19,WUHU216HW,2013-01-30 21:44:00,
2013-01-30 16:46:00,48.2,-5.8,29.22,SW,225,1.8,3.8,1,0.02,,,0.19,WUHU216HW,2013-01-30 21:46:00,
2013-01-30 16:47:00,48.2,-5.8,29.23,SSW,203,1.6,4.7,1,0.02,,,0.19,WUHU216HW,2013-01-30 21:47:00,
2013-01-30 16:48:00,47.7,-6.2,29.23,North,0,1.8,4.7,1,0.02,,,0.19,WUHU216HW,2013-01-30 21:48:00,
2013-01-30 16:49:00,47.5,-6.3,29.23,North,0,2.5,4.7,1,0.02,,,0.19,WUHU216HW,2013-01-30 21:49:00,
2013-01-30 16:51:00,47.2,-6.7,29.23,North,0,2.0,4.7,1,0.02,,,0.19,WUHU216HW,2013-01-30 21:51:00,
2013-01-30 16:52:00,47.0,-6.7,29.23,North,0,1.8,4.7,1,0.02,,,0.19,WUHU216HW,2013-01-30 21:52:00,
2013-01-30 16:53:00,46.8,-6.9,29.22,North,0,1.8,4.7,1,0.02,,,0.19,WUHU216HW,2013-01-30 21:53:00,
2013-01-30 16:54:00,46.6,-7.0,29.22,SSW,203,1.1,4.7,1,0.02,,,0.19,WUHU216HW,2013-01-30 21:54:00,
2013-01-30 16:56:00,46.6,-7.0,29.22,WNW,293,1.3,4.7,1,0.02,,,0.19,WUHU216HW,2013-01-30 21:56:00,
2013-01-30 16:57:00,46.3,-7.4,29.22,North,0,1.3,4.7,1,0.02,,,0.19,WUHU216HW,2013-01-30 21:57:00,
2013-01-30 16:58:00,46.3,-7.4,29.22,North,0,0.7,4.7,1,0.02,,,0.19,WUHU216HW,2013-01-30 21:58:00,
2013-01-30 16:59:00,46.3,-7.4,29.22,North,0,1.1,4.3,1,0.03,,,0.20,WUHU216HW,2013-01-30 21:59:00,
2013-01-30 17:01:00,46.3,-7.4,29.22,North,0,1.8,3.1,1,0.02,,,0.20,WUHU216HW,2013-01-30 22:01:00,
2013-01-30 17:02:00,46.1,-7.5,29.22,North,0,2.2,3.4,1,0.02,,,0.20,WUHU216HW,2013-01-30 22:02:00,
2013-01-30 17:03:00,45.9,-7.6,29.22,SSW,203,0.7,3.4,1,0.02,,,0.20,WUHU216HW,2013-01-30 22:03:00,
2013-01-30 17:04:00,45.9,-7.6,29.22,SSW,203,0.4,3.4,1,0.02,,,0.20,WUHU216HW,2013-01-30 22:04:00,
2013-01-30 17:06:00,45.9,-7.6,29.21,SSW,203,0.7,3.4,1,0.02,,,0.20,WUHU216HW,2013-01-30 22:06:00,
2013-01-30 17:07:00,46.1,-7.5,29.21,SSW,203,1.8,3.4,1,0.02,,,0.20,WUHU216HW,2013-01-30 22:07:00,
2013-01-30 17:08:00,46.4,-7.2,29.21,SSW,203,0.7,3.4,1,0.02,,,0.20,WUHU216HW,2013-01-30 22:08:00,
2013-01-30 17:09:00,46.8,-6.9,29.21,SSW,203,2.9,3.6,1,0.02,,,0.20,WUHU216HW,2013-01-30 22:09:00,
2013-01-30 17:11:00,47.3,-6.5,29.21,SSW,203,0.7,3.6,1,0.02,,,0.20,WUHU216HW,2013-01-30 22:11:00,
2013-01-30 17:12:00,47.5,-6.3,29.21,SSW,203,1.1,3.6,1,0.02,,,0.20,WUHU216HW,2013-01-30 22:12:00,
2013-01-30 17:13:00,47.9,-6.0,29.21,WNW,293,1.1,3.8,1,0.02,,,0.20,WUHU216HW,2013-01-30 22:13:00,
2013-01-30 17:14:00,48.2,-5.8,29.21,North,0,0.0,3.8,1,0.02,,,0.20,WUHU216HW,2013-01-30 22:14:00,
2013-01-30 17:16:00,48.4,-5.7,29.21,North,0,0.9,3.8,1,0.02,,,0.20,WUHU216HW,2013-01-30 22:16:00,
2013-01-30 17:17:00,48.6,-5.5,29.21,North,0,3.8,3.8,1,0.02,,,0.20,WUHU216HW,2013-01-30 22:17:00,
2013-01-30 17:18:00,48.4,-5.7,29.21,NNW,338,2.5,3.8,1,0.02,,,0.20,WUHU216HW,2013-01-30 22:18:00,
2013-01-30 17:20:00,48.1,-5.9,29.21,SSW,203,2.7,3.8,1,0.02,,,0.20,WUHU216HW,2013-01-30 22:20:00,
2013-01-30 17:21:00,48.4,-5.7,29.20,SSW,203,5.4,5.4,1,0.02,,,0.20,WUHU216HW,2013-01-30 22:21:00,
2013-01-30 17:22:00,49.0,-5.2,29.20,SSW,203,4.7,6.3,1,0.02,,,0.20,WUHU216HW,2013-01-30 22:22:00,
2013-01-30 17:23:00,49.3,-5.0,29.20,SSW,203,4.7,6.3,1,0.02,,,0.20,WUHU216HW,2013-01-30 22:23:00,
2013-01-30 17:25:00,50.0,-4.5,29.21,North,0,5.4,7.6,1,0.01,,,0.20,WUHU216HW,2013-01-30 22:25:00,
2013-01-30 17:27:00,50.4,-4.2,29.21,North,0,6.3,7.6,1,0.01,,,0.20,WUHU216HW,2013-01-30 22:27:00,
2013-01-30 17:29:00,50.2,-4.3,29.21,North,0,7.2,7.6,1,0.01,,,0.20,WUHU216HW,2013-01-30 22:29:00,
2013-01-30 17:30:00,50.0,-4.5,29.22,North,0,4.7,7.6,1,0.01,,,0.20,WUHU216HW,2013-01-30 22:30:00,
2013-01-30 17:32:00,49.9,-4.6,29.22,North,0,2.7,7.6,1,0.01,,,0.20,WUHU216HW,2013-01-30 22:32:00,
2013-01-30 17:34:00,49.3,-5.0,29.23,North,0,3.1,7.6,1,0.01,,,0.20,WUHU216HW,2013-01-30 22:34:00,
2013-01-30 17:35:00,49.3,-5.0,29.23,North,0,2.5,7.4,1,0.01,,,0.20,WUHU216HW,2013-01-30 22:35:00,
2013-01-30 17:37:00,49.3,-5.0,29.23,North,0,1.1,7.2,1,0.01,,,0.20,WUHU216HW,2013-01-30 22:37:00,
2013-01-30 17:39:00,49.0,-5.2,29.23,North,0,0.4,6.0,1,0.02,,,0.21,WUHU216HW,2013-01-30 22:39:00,
2013-01-30 17:40:00,48.6,-5.5,29.23,North,0,3.8,6.0,1,0.02,,,0.21,WUHU216HW,2013-01-30 22:40:00,
2013-01-30 17:42:00,48.4,-5.7,29.23,North,0,2.5,6.0,1,0.02,,,0.21,WUHU216HW,2013-01-30 22:42:00,
2013-01-30 17:44:00,48.4,-5.7,29.23,North,0,3.1,4.0,1,0.02,,,0.21,WUHU216HW,2013-01-30 22:44:00,
2013-01-30 17:46:00,48.6,-5.5,29.23,North,0,2.7,4.0,1,0.02,,,0.21,WUHU216HW,2013-01-30 22:46:00,
2013-01-30 17:47:00,49.0,-5.2,29.23,North,0,2.9,4.0,1,0.02,,,0.21,WUHU216HW,2013-01-30 22:47:00,
2013-01-30 17:48:00,49.1,-5.1,29.23,North,0,2.2,4.0,1,0.02,,,0.21,WUHU216HW,2013-01-30 22:48:00,
2013-01-30 17:49:00,49.3,-5.0,29.23,North,0,3.8,4.0,1,0.02,,,0.21,WUHU216HW,2013-01-30 22:49:00,
2013-01-30 17:51:00,49.7,-4.8,29.23,North,0,2.5,4.5,1,0.02,,,0.21,WUHU216HW,2013-01-30 22:51:00,
2013-01-30 17:52:00,50.0,-4.5,29.24,North,0,1.3,4.5,1,0.03,,,0.22,WUHU216HW,2013-01-30 22:52:00,
2013-01-30 17:53:00,50.0,-4.5,29.24,North,0,1.1,4.5,1,0.03,,,0.22,WUHU216HW,2013-01-30 22:53:00,
2013-01-30 17:54:00,50.0,-4.5,29.24,SSW,203,3.1,4.5,1,0.03,,,0.22,WUHU216HW,2013-01-30 22:54:00,
2013-01-30 17:56:00,50.4,-4.2,29.24,SSW,203,2.0,4.5,1,0.02,,,0.22,WUHU216HW,2013-01-30 22:56:00,
2013-01-30 17:58:00,50.0,-4.5,29.24,SSW,203,2.2,4.5,1,0.02,,,0.22,WUHU216HW,2013-01-30 22:58:00,
2013-01-30 18:00:00,49.9,-4.6,29.24,SSW,203,2.0,4.5,1,0.02,,,0.22,WUHU216HW,2013-01-30 23:00:00,
2013-01-30 18:01:00,49.7,-4.8,29.24,SSW,203,3.4,4.0,1,0.02,,,0.22,WUHU216HW,2013-01-30 23:01:00,
2013-01-30 18:03:00,49.1,-5.1,29.24,SSW,203,4.7,4.7,1,0.02,,,0.22,WUHU216HW,2013-01-30 23:03:00,
2013-01-30 18:05:00,49.0,-5.2,29.24,SSW,203,2.0,4.7,1,0.03,,,0.23,WUHU216HW,2013-01-30 23:05:00,
2013-01-30 18:06:00,49.0,-5.2,29.24,SSW,203,2.5,4.7,1,0.03,,,0.23,WUHU216HW,2013-01-30 23:06:00,
2013-01-30 18:08:00,49.0,-5.2,29.24,SSW,203,1.1,4.7,1,0.03,,,0.23,WUHU216HW,2013-01-30 23:08:00,
2013-01-30 18:10:00,48.8,-5.4,29.24,SSW,203,1.8,4.7,1,0.03,,,0.23,WUHU216HW,2013-01-30 23:10:00,
2013-01-30 18:11:00,48.6,-5.5,29.24,SSW,203,1.6,4.7,1,0.03,,,0.23,WUHU216HW,2013-01-30 23:11:00,
2013-01-30 18:13:00,48.2,-5.8,29.24,SSW,203,1.1,4.7,1,0.03,,,0.23,WUHU216HW,2013-01-30 23:13:00,
2013-01-30 18:15:00,47.9,-6.0,29.24,SSW,203,1.6,3.8,1,0.03,,,0.23,WUHU216HW,2013-01-30 23:15:00,
2013-01-30 18:16:00,47.9,-6.0,29.24,SSW,203,1.1,3.8,1,0.03,,,0.23,WUHU216HW,2013-01-30 23:16:00,
2013-01-30 18:18:00,47.7,-6.2,29.24,SSW,203,2.0,3.8,1,0.04,,,0.24,WUHU216HW,2013-01-30 23:18:00,
2013-01-30 18:20:00,47.9,-6.0,29.24,SSW,203,0.7,2.2,1,0.04,,,0.24,WUHU216HW,2013-01-30 23:20:00,
2013-01-30 18:21:00,47.9,-6.0,29.24,SSW,203,0.7,2.2,1,0.04,,,0.24,WUHU216HW,2013-01-30 23:21:00,
2013-01-30 18:23:00,48.2,-5.8,29.25,SSW,203,0.4,2.2,1,0.04,,,0.24,WUHU216HW,2013-01-30 23:23:00,
2013-01-30 18:26:00,47.7,-6.2,29.25,WSW,248,0.2,2.0,1,0.04,,,0.24,WUHU216HW,2013-01-30 23:26:00,
2013-01-30 18:28:00,47.3,-6.5,29.24,SSW,203,1.1,1.3,1,0.04,,,0.24,WUHU216HW,2013-01-30 23:28:00,
2013-01-30 18:31:00,47.3,-6.5,29.25,WSW,248,2.5,2.5,1,0.04,,,0.24,WUHU216HW,2013-01-30 23:31:00,
2013-01-30 18:33:00,47.5,-6.3,29.24,SSW,203,0.2,2.5,1,0.04,,,0.24,WUHU216HW,2013-01-30 23:33:00,
2013-01-30 18:36:00,47.9,-6.0,29.25,NNW,338,1.1,2.5,1,0.03,,,0.24,WUHU216HW,2013-01-30 23:36:00,
2013-01-30 18:39:00,47.7,-6.2,29.25,North,0,1.1,2.5,1,0.04,,,0.25,WUHU216HW,2013-01-30 23:39:00,
2013-01-30 18:41:00,47.5,-6.3,29.25,NW,315,1.3,2.5,1,0.04,,,0.25,WUHU216HW,2013-01-30 23:41:00,
2013-01-30 18:44:00,47.2,-6.7,29.25,North,0,1.8,2.5,1,0.05,,,0.26,WUHU216HW,2013-01-30 23:44:00,
2013-01-30 18:46:00,47.3,-6.5,29.25,SSW,203,0.4,2.5,1,0.05,,,0.26,WUHU216HW,2013-01-30 23:46:00,
2013-01-30 18:47:00,47.3,-6.5,29.25,SSW,203,0.2,2.5,1,0.05,,,0.26,WUHU216HW,2013-01-30 23:47:00,
2013-01-30 18:49:00,47.2,-6.7,29.24,SSW,203,0.0,2.5,1,0.05,,,0.26,WUHU216HW,2013-01-30 23:49:00,
2013-01-30 18:52:00,47.0,-6.7,29.24,SSW,203,0.4,2.0,1,0.04,,,0.26,WUHU216HW,2013-01-30 23:52:00,
2013-01-30 18:54:00,46.8,-6.9,29.23,WNW,293,1.6,2.2,1,0.04,,,0.26,WUHU216HW,2013-01-30 23:54:00,
2013-01-30 18:57:00,47.0,-6.7,29.23,North,0,0.7,2.2,1,0.05,,,0.27,WUHU216HW,2013-01-30 23:57:00,
2013-01-30 18:59:00,47.0,-6.7,29.22,North,0,1.8,2.2,1,0.05,,,0.27,WUHU216HW,2013-01-30 23:59:00,
2013-01-30 19:02:00,47.7,-6.2,29.22,North,0,0.4,2.2,1,0.05,,,0.27,WUHU216HW,2013-01-31 00:02:00,
2013-01-30 19:04:00,47.9,-6.0,29.22,North,0,0.0,1.8,1,0.04,,,0.27,WUHU216HW,2013-01-31 00:04:00,
2013-01-30 19:07:00,47.5,-6.3,29.23,SW,225,1.3,3.1,1,0.04,,,0.27,WUHU216HW,2013-01-31 00:07:00,
2013-01-30 19:09:00,47.3,-6.5,29.22,SSW,203,1.6,3.1,1,0.05,,,0.28,WUHU216HW,2013-01-31 00:09:00,
2013-01-30 19:10:00,47.3,-6.5,29.22,SW,225,2.5,3.1,1,0.05,,,0.28,WUHU216HW,2013-01-31 00:10:00,
2013-01-30 19:12:00,47.9,-6.0,29.22,SW,225,1.3,4.5,1,0.05,,,0.28,WUHU216HW,2013-01-31 00:12:00,
2013-01-30 19:14:00,48.6,-5.5,29.21,SW,225,3.1,4.5,1,0.05,,,0.28,WUHU216HW,2013-01-31 00:14:00,
2013-01-30 19:15:00,48.6,-5.5,29.21,SW,225,3.1,4.5,1,0.05,,,0.28,WUHU216HW,2013-01-31 00:15:00,
2013-01-30 19:17:00,48.8,-5.4,29.22,NW,315,1.1,4.5,1,0.04,,,0.28,WUHU216HW,2013-01-31 00:17:00,
2013-01-30 19:19:00,47.7,-6.2,29.22,NNW,338,2.0,4.5,1,0.04,,,0.28,WUHU216HW,2013-01-31 00:19:00,
2013-01-30 19:20:00,47.3,-6.5,29.22,NW,315,0.9,4.5,1,0.04,,,0.28,WUHU216HW,2013-01-31 00:20:00,
2013-01-30 19:22:00,47.0,-6.7,29.22,WSW,248,4.7,4.7,1,0.04,,,0.28,WUHU216HW,2013-01-31 00:22:00,
2013-01-30 19:24:00,46.6,-7.0,29.22,NW,315,0.4,4.7,1,0.04,,,0.28,WUHU216HW,2013-01-31 00:24:00,
2013-01-30 19:25:00,46.4,-7.2,29.22,NW,315,0.0,4.7,1,0.04,,,0.28,WUHU216HW,2013-01-31 00:25:00,
2013-01-30 19:27:00,46.3,-7.4,29.22,West,270,2.0,4.7,1,0.04,,,0.28,WUHU216HW,2013-01-31 00:27:00,
2013-01-30 19:28:00,46.3,-7.4,29.22,West,270,2.0,4.7,1,0.04,,,0.28,WUHU216HW,2013-01-31 00:28:00,
2013-01-30 19:30:00,46.1,-7.5,29.22,SW,225,3.4,4.7,1,0.04,,,0.28,WUHU216HW,2013-01-31 00:30:00,
2013-01-30 19:32:00,46.4,-7.2,29.22,WSW,248,3.6,5.1,1,0.05,,,0.29,WUHU216HW,2013-01-31 00:32:00,
2013-01-30 19:33:00,46.4,-7.2,29.22,West,270,1.1,5.1,1,0.05,,,0.29,WUHU216HW,2013-01-31 00:33:00,
2013-01-30 19:35:00,46.4,-7.2,29.21,NNW,338,1.3,5.1,1,0.05,,,0.29,WUHU216HW,2013-01-31 00:35:00,
2013-01-30 19:38:00,46.4,-7.2,29.21,NNW,338,1.3,5.1,1,0.04,,,0.29,WUHU216HW,2013-01-31 00:38:00,
2013-01-30 19:40:00,46.1,-7.5,29.21,North,0,1.1,5.1,1,0.04,,,0.30,WUHU216HW,2013-01-31 00:40:00,
2013-01-30 19:43:00,46.1,-7.5,29.22,NNW,338,0.0,2.2,1,0.04,,,0.30,WUHU216HW,2013-01-31 00:43:00,
2013-01-30 19:44:00,46.1,-7.5,29.22,NNW,338,0.0,1.3,1,0.04,,,0.30,WUHU216HW,2013-01-31 00:44:00,
2013-01-30 19:45:00,46.1,-7.5,29.22,NW,315,0.7,1.3,1,0.05,,,0.31,WUHU216HW,2013-01-31 00:45:00,
2013-01-30 19:46:00,46.1,-7.5,29.22,West,270,1.6,1.8,1,0.05,,,0.31,WUHU216HW,2013-01-31 00:46:00,
2013-01-30 19:48:00,46.4,-7.2,29.22,West,270,2.5,2.5,1,0.05,,,0.31,WUHU216HW,2013-01-31 00:48:00,
2013-01-30 19:49:00,46.6,-7.0,29.23,West,270,2.0,2.5,1,0.05,,,0.31,WUHU216HW,2013-01-31 00:49:00,
2013-01-30 19:50:00,46.6,-7.0,29.22,WSW,248,2.0,2.5,1,0.05,,,0.31,WUHU216HW,2013-01-31 00:50:00,
2013-01-30 19:51:00,46.6,-7.0,29.22,WNW,293,0.4,2.5,1,0.05,,,0.31,WUHU216HW,2013-01-31 00:51:00,
2013-01-30 19:54:00,46.4,-7.2,29.22,North,0,2.5,2.5,1,0.05,,,0.33,WUHU216HW,2013-01-31 00:54:00,
2013-01-30 19:55:00,46.4,-7.2,29.22,NW,315,2.9,2.9,1,0.05,,,0.33,WUHU216HW,2013-01-31 00:55:00,
2013-01-30 19:56:00,46.4,-7.2,29.22,NW,315,1.1,2.9,1,0.05,,,0.33,WUHU216HW,2013-01-31 00:56:00,
2013-01-30 19:59:00,46.4,-7.2,29.22,North,0,1.8,2.9,1,0.05,,,0.33,WUHU216HW,2013-01-31 00:59:00,
2013-01-30 20:00:00,46.4,-7.2,29.21,North,0,0.4,2.9,1,0.05,,,0.33,WUHU216HW,2013-01-31 01:00:00,
2013-01-30 20:01:00,46.4,-7.2,29.21,North,0,0.4,2.9,1,0.05,,,0.33,WUHU216HW,2013-01-31 01:01:00,
2013-01-30 20:04:00,46.1,-7.5,29.21,North,0,0.9,2.9,1,0.06,,,0.33,WUHU216HW,2013-01-31 01:04:00,
2013-01-30 20:05:00,46.1,-7.5,29.20,North,0,0.4,2.9,1,0.06,,,0.33,WUHU216HW,2013-01-31 01:05:00,
2013-01-30 20:06:00,46.1,-7.5,29.20,North,0,0.4,2.5,1,0.06,,,0.33,WUHU216HW,2013-01-31 01:06:00,
2013-01-30 20:09:00,46.1,-7.5,29.20,North,0,1.1,1.6,1,0.05,,,0.33,WUHU216HW,2013-01-31 01:09:00,
2013-01-30 20:10:00,46.1,-7.5,29.20,North,0,1.1,1.6,1,0.05,,,0.33,WUHU216HW,2013-01-31 01:10:00,
2013-01-30 20:11:00,46.1,-7.5,29.20,North,0,1.3,1.6,1,0.05,,,0.33,WUHU216HW,2013-01-31 01:11:00,
2013-01-30 20:14:00,46.1,-7.5,29.20,North,0,1.1,1.3,1,0.06,,,0.34,WUHU216HW,2013-01-31 01:14:00,
2013-01-30 20:15:00,46.1,-7.5,29.20,North,0,1.1,1.3,1,0.06,,,0.34,WUHU216HW,2013-01-31 01:15:00,
2013-01-30 20:16:00,45.9,-7.6,29.20,North,0,1.1,1.3,1,0.06,,,0.34,WUHU216HW,2013-01-31 01:16:00,
2013-01-30 20:20:00,45.5,-7.9,29.20,NNW,338,1.1,1.3,1,0.06,,,0.34,WUHU216HW,2013-01-31 01:20:00,
2013-01-30 20:21:00,45.5,-7.9,29.20,North,0,0.4,1.3,1,0.07,,,0.35,WUHU216HW,2013-01-31 01:21:00,
2013-01-30 20:25:00,45.7,-7.7,29.20,North,0,1.1,2.0,1,0.07,,,0.35,WUHU216HW,2013-01-31 01:25:00,
2013-01-30 20:26:00,45.7,-7.7,29.20,North,0,2.5,2.5,1,0.07,,,0.35,WUHU216HW,2013-01-31 01:26:00,
2013-01-30 20:27:00,45.9,-7.6,29.20,NNW,338,0.4,2.5,1,0.07,,,0.35,WUHU216HW,2013-01-31 01:27:00,
2013-01-30 20:30:00,45.7,-7.7,29.20,North,0,1.1,3.8,1,0.06,,,0.35,WUHU216HW,2013-01-31 01:30:00,
2013-01-30 20:31:00,45.9,-7.6,29.20,North,0,1.6,3.8,1,0.06,,,0.35,WUHU216HW,2013-01-31 01:31:00,
2013-01-30 20:32:00,45.9,-7.6,29.20,North,0,2.0,3.8,1,0.06,,,0.35,WUHU216HW,2013-01-31 01:32:00,
2013-01-30 20:35:00,45.9,-7.6,29.20,North,0,1.6,4.0,1,0.07,,,0.36,WUHU216HW,2013-01-31 01:35:00,
2013-01-30 20:36:00,45.7,-7.7,29.20,North,0,2.0,4.0,1,0.06,,,0.36,WUHU216HW,2013-01-31 01:36:00,
2013-01-30 20:37:00,45.7,-7.7,29.20,North,0,1.6,4.0,1,0.06,,,0.36,WUHU216HW,2013-01-31 01:37:00,
2013-01-30 20:40:00,45.4,-8.1,29.20,North,0,2.2,4.0,1,0.06,,,0.36,WUHU216HW,2013-01-31 01:40:00,
2013-01-30 20:41:00,45.4,-8.1,29.20,North,0,2.2,4.0,1,0.06,,,0.36,WUHU216HW,2013-01-31 01:41:00,
2013-01-30 20:42:00,45.2,-8.2,29.20,North,0,4.3,4.3,1,0.06,,,0.36,WUHU216HW,2013-01-31 01:42:00,
2013-01-30 20:45:00,45.0,-8.4,29.20,North,0,4.7,4.7,1,0.06,,,0.37,WUHU216HW,2013-01-31 01:45:00,
2013-01-30 20:46:00,45.0,-8.4,29.20,North,0,3.4,4.7,1,0.06,,,0.37,WUHU216HW,2013-01-31 01:46:00,
2013-01-30 20:47:00,45.0,-8.4,29.20,North,0,3.1,4.7,1,0.06,,,0.37,WUHU216HW,2013-01-31 01:47:00,
2013-01-30 20:51:00,45.4,-8.1,29.20,North,0,3.4,6.7,1,0.06,,,0.37,WUHU216HW,2013-01-31 01:51:00,
2013-01-30 20:52:00,45.4,-8.1,29.20,NNW,338,1.8,6.7,1,0.05,,,0.37,WUHU216HW,2013-01-31 01:52:00,
2013-01-30 20:56:00,44.8,-8.4,29.20,North,0,2.7,6.7,1,0.06,,,0.38,WUHU216HW,2013-01-31 01:56:00,
2013-01-30 20:57:00,44.5,-8.8,29.19,North,0,3.4,6.7,1,0.06,,,0.38,WUHU216HW,2013-01-31 01:57:00,
2013-01-30 21:01:00,44.3,-8.9,29.18,North,0,1.6,4.0,1,0.05,,,0.38,WUHU216HW,2013-01-31 02:01:00,
2013-01-30 21:02:00,44.3,-8.9,29.18,North,0,0.7,4.0,1,0.05,,,0.38,WUHU216HW,2013-01-31 02:02:00,
2013-01-30 21:06:00,44.3,-8.9,29.18,North,0,0.0,3.4,1,0.06,,,0.40,WUHU216HW,2013-01-31 02:06:00,
2013-01-30 21:07:00,44.3,-8.9,29.18,North,0,0.4,3.4,1,0.06,,,0.40,WUHU216HW,2013-01-31 02:07:00,
2013-01-30 21:11:00,43.9,-9.2,29.18,North,0,0.0,2.7,1,0.07,,,0.40,WUHU216HW,2013-01-31 02:11:00,
2013-01-30 21:13:00,43.9,-9.2,29.18,North,0,0.2,2.7,1,0.06,,,0.40,WUHU216HW,2013-01-31 02:13:00,
2013-01-30 21:16:00,43.9,-9.2,29.17,North,0,0.9,2.5,1,0.06,,,0.40,WUHU216HW,2013-01-31 02:16:00,
2013-01-30 21:17:00,44.1,-9.1,29.17,North,0,1.1,2.5,1,0.06,,,0.40,WUHU216HW,2013-01-31 02:17:00,
2013-01-30 21:18:00,44.1,-9.1,29.17,North,0,0.7,2.5,1,0.06,,,0.40,WUHU216HW,2013-01-31 02:18:00,
2013-01-30 21:21:00,44.1,-9.1,29.17,North,0,1.1,2.5,1,0.06,,,0.42,WUHU216HW,2013-01-31 02:21:00,
2013-01-30 21:22:00,44.1,-9.1,29.17,North,0,0.4,2.5,1,0.06,,,0.42,WUHU216HW,2013-01-31 02:22:00,
2013-01-30 21:23:00,43.9,-9.2,29.17,North,0,3.1,3.1,1,0.06,,,0.42,WUHU216HW,2013-01-31 02:23:00,
2013-01-30 21:27:00,43.9,-9.2,29.16,North,0,1.1,3.1,1,0.06,,,0.42,WUHU216HW,2013-01-31 02:27:00,
2013-01-30 21:28:00,43.9,-9.2,29.16,SSW,203,1.1,3.1,1,0.06,,,0.42,WUHU216HW,2013-01-31 02:28:00,
2013-01-30 21:32:00,44.3,-8.9,29.15,SSW,203,0.0,3.1,1,0.06,,,0.42,WUHU216HW,2013-01-31 02:32:00,
2013-01-30 21:33:00,44.3,-8.9,29.15,SSW,203,0.0,2.2,1,0.06,,,0.42,WUHU216HW,2013-01-31 02:33:00,
2013-01-30 21:37:00,44.1,-9.1,29.15,SW,225,1.6,1.6,1,0.06,,,0.42,WUHU216HW,2013-01-31 02:37:00,
2013-01-30 21:38:00,44.1,-9.1,29.15,West,270,1.1,1.8,1,0.06,,,0.42,WUHU216HW,2013-01-31 02:38:00,
2013-01-30 21:42:00,44.1,-9.1,29.15,West,270,0.4,2.0,1,0.07,,,0.44,WUHU216HW,2013-01-31 02:42:00,
2013-01-30 21:43:00,44.1,-9.1,29.15,West,270,0.4,2.0,1,0.07,,,0.44,WUHU216HW,2013-01-31 02:43:00,
2013-01-30 21:47:00,44.3,-8.9,29.14,SSW,203,0.7,2.9,1,0.07,,,0.45,WUHU216HW,2013-01-31 02:47:00,
2013-01-30 21:48:00,44.3,-8.9,29.14,SSW,203,0.9,2.9,1,0.07,,,0.45,WUHU216HW,2013-01-31 02:48:00,
2013-01-30 21:52:00,45.0,-8.4,29.14,WSW,248,3.1,3.1,1,0.06,,,0.45,WUHU216HW,2013-01-31 02:52:00,
2013-01-30 21:53:00,45.2,-8.2,29.14,West,270,2.5,3.1,1,0.06,,,0.45,WUHU216HW,2013-01-31 02:53:00,
2013-01-30 21:57:00,45.5,-7.9,29.13,WSW,248,1.3,3.8,1,0.06,,,0.45,WUHU216HW,2013-01-31 02:57:00,
2013-01-30 21:58:00,45.9,-7.6,29.13,SSW,203,3.1,3.8,1,0.06,,,0.45,WUHU216HW,2013-01-31 02:58:00,
2013-01-30 21:59:00,46.4,-7.2,29.13,SSW,203,1.1,3.8,1,0.06,,,0.45,WUHU216HW,2013-01-31 02:59:00,
2013-01-30 22:02:00,47.2,-6.7,29.12,SSW,203,3.4,3.8,1,0.05,,,0.45,WUHU216HW,2013-01-31 03:02:00,
2013-01-30 22:03:00,47.9,-6.0,29.12,SSW,203,2.7,3.8,1,0.05,,,0.45,WUHU216HW,2013-01-31 03:03:00,
2013-01-30 22:04:00,47.9,-6.0,29.12,SSW,203,4.0,4.0,1,0.05,,,0.45,WUHU216HW,2013-01-31 03:04:00,
2013-01-30 22:07:00,48.4,-5.7,29.12,SW,225,0.9,7.6,1,0.05,,,0.45,WUHU216HW,2013-01-31 03:07:00,
2013-01-30 22:09:00,48.2,-5.8,29.12,SW,225,2.2,7.6,1,0.04,,,0.45,WUHU216HW,2013-01-31 03:09:00,
2013-01-30 22:12:00,47.2,-6.7,29.12,North,0,0.0,7.6,1,0.04,,,0.45,WUHU216HW,2013-01-31 03:12:00,
2013-01-30 22:13:00,47.2,-6.7,29.12,North,0,0.2,7.6,1,0.04,,,0.45,WUHU216HW,2013-01-31 03:13:00,
2013-01-30 22:14:00,47.0,-6.7,29.12,WSW,248,3.4,7.6,1,0.05,,,0.45,WUHU216HW,2013-01-31 03:14:00,
2013-01-30 22:17:00,46.4,-7.2,29.12,West,270,0.7,4.0,1,0.04,,,0.45,WUHU216HW,2013-01-31 03:17:00,
2013-01-30 22:18:00,46.4,-7.2,29.12,West,270,0.7,4.0,1,0.04,,,0.45,WUHU216HW,2013-01-31 03:18:00,
2013-01-30 22:19:00,46.3,-7.4,29.12,West,270,1.8,4.0,1,0.04,,,0.45,WUHU216HW,2013-01-31 03:19:00,
2013-01-30 22:22:00,45.9,-7.6,29.12,SW,225,1.3,4.0,1,0.04,,,0.45,WUHU216HW,2013-01-31 03:22:00,
2013-01-30 22:23:00,45.9,-7.6,29.12,North,0,2.0,4.0,1,0.04,,,0.45,WUHU216HW,2013-01-31 03:23:00,
2013-01-30 22:24:00,46.3,-7.4,29.12,SSW,203,3.4,4.0,1,0.04,,,0.45,WUHU216HW,2013-01-31 03:24:00,
2013-01-30 22:27:00,47.2,-6.7,29.11,North,0,1.1,5.4,1,0.03,,,0.45,WUHU216HW,2013-01-31 03:27:00,
2013-01-30 22:28:00,47.2,-6.7,29.11,North,0,4.7,5.4,1,0.03,,,0.45,WUHU216HW,2013-01-31 03:28:00,
2013-01-30 22:29:00,47.5,-6.3,29.11,SSW,203,2.5,5.4,1,0.03,,,0.45,WUHU216HW,2013-01-31 03:29:00,
2013-01-30 22:33:00,49.0,-5.2,29.11,North,0,4.7,5.6,1,0.04,,,0.47,WUHU216HW,2013-01-31 03:33:00,
2013-01-30 22:34:00,49.3,-5.0,29.11,North,0,4.5,5.6,1,0.04,,,0.47,WUHU216HW,2013-01-31 03:34:00,
2013-01-30 22:35:00,49.3,-5.0,29.11,North,0,4.5,5.6,1,0.04,,,0.47,WUHU216HW,2013-01-31 03:35:00,
2013-01-30 22:38:00,49.9,-4.6,29.11,SSW,203,3.4,5.6,1,0.03,,,0.47,WUHU216HW,2013-01-31 03:38:00,
2013-01-30 22:39:00,49.9,-4.6,29.11,SSW,203,5.6,5.6,1,0.03,,,0.47,WUHU216HW,2013-01-31 03:39:00,
2013-01-30 22:40:00,50.0,-4.5,29.11,SSW,203,8.3,8.3,1,0.03,,,0.47,WUHU216HW,2013-01-31 03:40:00,
2013-01-30 22:43:00,50.0,-4.5,29.11,North,0,3.1,9.4,1,0.03,,,0.47,WUHU216HW,2013-01-31 03:43:00,
2013-01-30 22:44:00,50.0,-4.5,29.11,North,0,5.4,9.4,1,0.02,,,0.47,WUHU216HW,2013-01-31 03:44:00,
2013-01-30 22:45:00,50.0,-4.5,29.11,North,0,7.4,9.4,1,0.02,,,0.47,WUHU216HW,2013-01-31 03:45:00,
2013-01-30 22:48:00,49.9,-4.6,29.11,North,0,9.4,9.4,1,0.03,,,0.47,WUHU216HW,2013-01-31 03:48:00,
2013-01-30 22:49:00,49.9,-4.6,29.11,North,0,7.4,9.4,1,0.03,,,0.47,WUHU216HW,2013-01-31 03:49:00,
2013-01-30 22:50:00,49.7,-4.8,29.11,North,0,6.5,9.4,1,0.03,,,0.47,WUHU216HW,2013-01-31 03:50:00,
2013-01-30 22:53:00,49.7,-4.8,29.10,North,0,2.9,9.4,1,0.03,,,0.47,WUHU216HW,2013-01-31 03:53:00,
2013-01-30 22:54:00,49.5,-4.8,29.10,North,0,6.3,9.4,1,0.03,,,0.47,WUHU216HW,2013-01-31 03:54:00,
2013-01-30 22:55:00,49.7,-4.8,29.10,North,0,0.7,9.4,1,0.03,,,0.47,WUHU216HW,2013-01-31 03:55:00,
2013-01-30 22:58:00,49.7,-4.8,29.10,SSW,203,7.2,9.4,1,0.03,,,0.47,WUHU216HW,2013-01-31 03:58:00,
2013-01-30 22:59:00,49.7,-4.8,29.10,North,0,8.3,8.9,1,0.04,,,0.49,WUHU216HW,2013-01-31 03:59:00,
2013-01-30 23:00:00,49.7,-4.8,29.10,North,0,8.3,8.9,1,0.04,,,0.49,WUHU216HW,2013-01-31 04:00:00,
2013-01-30 23:03:00,49.7,-4.8,29.09,North,0,6.0,8.3,1,0.04,,,0.49,WUHU216HW,2013-01-31 04:03:00,
2013-01-30 23:04:00,49.7,-4.8,29.09,North,0,8.5,8.5,1,0.04,,,0.49,WUHU216HW,2013-01-31 04:04:00,
2013-01-30 23:05:00,49.7,-4.8,29.08,North,0,7.8,8.5,1,0.04,,,0.49,WUHU216HW,2013-01-31 04:05:00,
2013-01-30 23:09:00,49.7,-4.8,29.07,North,0,3.6,8.5,1,0.04,,,0.49,WUHU216HW,2013-01-31 04:09:00,
2013-01-30 23:10:00,49.5,-4.8,29.07,North,0,3.6,8.5,1,0.04,,,0.49,WUHU216HW,2013-01-31 04:10:00,
2013-01-30 23:11:00,49.5,-4.8,29.07,North,0,1.6,8.5,1,0.04,,,0.49,WUHU216HW,2013-01-31 04:11:00,
2013-01-30 23:14:00,49.3,-5.0,29.07,North,0,6.3,9.2,1,0.04,,,0.49,WUHU216HW,2013-01-31 04:14:00,
2013-01-30 23:15:00,49.3,-5.0,29.07,North,0,6.5,9.2,1,0.04,,,0.49,WUHU216HW,2013-01-31 04:15:00,
2013-01-30 23:16:00,49.1,-5.1,29.07,North,0,6.0,9.2,1,0.04,,,0.49,WUHU216HW,2013-01-31 04:16:00,
2013-01-30 23:19:00,48.4,-5.7,29.07,SSW,203,8.1,9.2,1,0.04,,,0.49,WUHU216HW,2013-01-31 04:19:00,
2013-01-30 23:20:00,48.4,-5.7,29.07,SSW,203,4.9,9.2,1,0.04,,,0.49,WUHU216HW,2013-01-31 04:20:00,
2013-01-30 23:21:00,48.2,-5.8,29.07,SSW,203,6.7,9.2,1,0.04,,,0.49,WUHU216HW,2013-01-31 04:21:00,
2013-01-30 23:24:00,48.1,-5.9,29.07,North,0,5.4,8.5,1,0.04,,,0.49,WUHU216HW,2013-01-31 04:24:00,
2013-01-30 23:25:00,48.1,-5.9,29.07,North,0,3.4,8.5,1,0.04,,,0.49,WUHU216HW,2013-01-31 04:25:00,
2013-01-30 23:26:00,48.2,-5.8,29.07,North,0,4.3,8.5,1,0.04,,,0.49,WUHU216HW,2013-01-31 04:26:00,
2013-01-30 23:29:00,48.2,-5.8,29.06,North,0,6.0,10.7,1,0.05,,,0.51,WUHU216HW,2013-01-31 04:29:00,
2013-01-30 23:30:00,48.1,-5.9,29.06,North,0,4.0,10.7,1,0.05,,,0.51,WUHU216HW,2013-01-31 04:30:00,
2013-01-30 23:31:00,48.1,-5.9,29.06,North,0,4.0,10.7,1,0.05,,,0.51,WUHU216HW,2013-01-31 04:31:00,
2013-01-30 23:34:00,48.1,-5.9,29.05,North,0,6.3,10.7,1,0.04,,,0.51,WUHU216HW,2013-01-31 04:34:00,
2013-01-30 23:35:00,48.2,-5.8,29.05,North,0,6.3,10.7,1,0.04,,,0.51,WUHU216HW,2013-01-31 04:35:00,
2013-01-30 23:36:00,48.2,-5.8,29.05,North,0,6.3,10.7,1,0.04,,,0.51,WUHU216HW,2013-01-31 04:36:00,
2013-01-30 23:39:00,48.6,-5.5,29.04,North,0,6.9,8.1,1,0.04,,,0.51,WUHU216HW,2013-01-31 04:39:00,
2013-01-30 23:41:00,48.6,-5.5,29.04,North,0,6.5,8.1,1,0.04,,,0.51,WUHU216HW,2013-01-31 04:41:00,
2013-01-30 23:44:00,48.6,-5.5,29.04,North,0,3.8,8.5,1,0.03,,,0.51,WUHU216HW,2013-01-31 04:44:00,
2013-01-30 23:46:00,48.6,-5.5,29.03,North,0,4.9,8.5,1,0.03,,,0.51,WUHU216HW,2013-01-31 04:46:00,
2013-01-30 23:50:00,48.8,-5.4,29.03,North,0,4.9,8.5,1,0.03,,,0.51,WUHU216HW,2013-01-31 04:50:00,
2013-01-30 23:51:00,48.8,-5.4,29.02,North,0,4.0,8.5,1,0.03,,,0.51,WUHU216HW,2013-01-31 04:51:00,
2013-01-30 23:55:00,48.8,-5.4,29.02,North,0,5.4,8.5,1,0.03,,,0.51,WUHU216HW,2013-01-31 04:55:00,
2013-01-30 23:56:00,48.8,-5.4,29.01,North,0,4.9,8.5,1,0.03,,,0.52,WUHU216HW,2013-01-31 04:56:00,